NW0017 Weather Reports


time (UTC)temp
C
wind
direction
speed
KPH
gust
KPH
rain 1hr
cm
rain 24hr
cm
rain mn
cm
humidity
%
barometer
mb
20260506200207 26 129 3.2 3.2 0.00 0.00 0.00 99 1005.8
20260506200107 26 129 3.2 3.2 0.00 0.00 0.00 99 1005.8
20260506200007 26 129 3.2 4.8 0.00 0.00 0.00 99 1005.8
20260506195907 26 129 4.8 3.2 0.00 0.00 0.00 99 1005.9
20260506195807 26 129 3.2 1.6 0.00 0.00 0.00 99 1005.9
20260506195707 26 129 1.6 3.2 0.00 0.00 0.00 99 1005.9
20260506195607 26 129 3.2 1.6 0.00 0.00 0.00 99 1005.9
20260506195507 26 129 1.6 3.2 0.00 0.00 0.00 99 1005.9
20260506195407 26 129 3.2 1.6 0.00 0.00 0.00 99 1005.9
20260506195307 26 134 1.6 0.0 0.00 0.00 0.00 99 1005.9
20260506195207 26 134 0.0 1.6 0.00 0.00 0.00 99 1005.9
20260506195107 26 135 1.6 0.0 0.00 0.00 0.00 99 1005.9
20260506195007 26 135 0.0 3.2 0.00 0.00 0.00 99 1005.9
20260506194907 26 135 3.2 3.2 0.00 0.00 0.00 99 1005.9
20260506194807 26 135 3.2 0.0 0.00 0.00 0.00 99 1005.9
20260506194707 26 127 3.2 3.2 0.00 0.00 0.00 99 1005.9
20260506194607 26 127 3.2 0.0 0.00 0.00 0.00 99 1005.9
20260506194507 26 140 0.0 0.0 0.00 0.00 0.00 99 1005.9
20260506194407 26 140 0.0 0.0 0.00 0.00 0.00 99 1005.9
20260506194307 26 148 0.0 0.0 0.00 0.00 0.00 99 1005.9
20260506194207 26 148 0.0 0.0 0.00 0.00 0.00 99 1005.9
20260506194107 26 148 0.0 0.0 0.00 0.00 0.00 99 1005.9
20260506194007 26 148 0.0 0.0 0.00 0.00 0.00 99 1005.9
20260506193907 26 148 0.0 0.0 0.00 0.00 0.00 99 1005.9
20260506193807 26 148 0.0 0.0 0.00 0.00 0.00 99 1005.9
20260506193707 26 148 0.0 0.0 0.00 0.00 0.00 99 1005.9
20260506193607 26 148 0.0 0.0 0.00 0.00 0.00 99 1005.9
20260506193507 26 148 0.0 0.0 0.00 0.00 0.00 99 1005.9
20260506193407 26 148 0.0 0.0 0.00 0.00 0.00 99 1005.9
20260506193307 26 148 0.0 0.0 0.00 0.00 0.00 99 1005.9
20260506193207 26 148 0.0 0.0 0.00 0.00 0.00 99 1006.0
20260506193107 26 148 0.0 0.0 0.00 0.00 0.00 99 1006.0
20260506193007 26 148 0.0 0.0 0.00 0.00 0.00 99 1006.0
20260506192907 26 148 0.0 0.0 0.00 0.00 0.00 99 1006.0
20260506192807 26 148 0.0 1.6 0.00 0.00 0.00 99 1006.0
20260506192707 26 148 0.0 0.0 0.00 0.00 0.00 99 1006.0
20260506192607 26 148 0.0 0.0 0.00 0.00 0.00 99 1006.0
20260506192507 26 148 0.0 0.0 0.00 0.00 0.00 99 1006.0
20260506192407 26 148 0.0 0.0 0.00 0.00 0.00 99 1006.1
20260506192307 26 148 0.0 0.0 0.00 0.00 0.00 99 1006.1
20260506192207 26 148 0.0 0.0 0.00 0.00 0.00 99 1006.1
20260506192107 26 148 0.0 0.0 0.00 0.00 0.00 99 1006.1
20260506192007 26 148 0.0 0.0 0.00 0.00 0.00 99 1006.1
20260506191907 26 148 0.0 1.6 0.00 0.00 0.00 99 1006.1
20260506191807 26 148 1.6 1.6 0.00 0.00 0.00 99 1006.1
20260506191707 26 148 1.6 1.6 0.00 0.00 0.00 99 1006.1
20260506191607 26 148 1.6 3.2 0.00 0.00 0.00 99 1006.1
20260506191507 26 148 3.2 3.2 0.00 0.00 0.00 99 1006.1
20260506191407 26 148 3.2 3.2 0.00 0.00 0.00 99 1006.2
20260506191307 26 148 3.2 3.2 0.00 0.00 0.00 99 1006.2
20260506191207 26 148 3.2 3.2 0.00 0.00 0.00 99 1006.2
20260506191107 26 148 3.2 3.2 0.00 0.00 0.00 99 1006.2
20260506191007 26 148 3.2 0.0 0.00 0.00 0.00 99 1006.2
20260506190907 26 149 0.0 0.0 0.00 0.00 0.00 99 1006.2
20260506190000 26 149 3.2 3.2 0.00 0.00 0.00 99 1006.4
20260506185900 26 149 3.2 1.6 0.00 0.00 0.00 99 1006.4
20260506185800 26 149 1.6 1.6 0.00 0.00 0.00 99 1006.4
20260506185700 26 149 1.6 1.6 0.00 0.00 0.00 99 1006.4
20260506185600 26 149 1.6 1.6 0.00 0.00 0.00 99 1006.4
20260506185500 26 149 1.6 0.0 0.00 0.00 0.00 99 1006.4
20260506185400 26 149 0.0 0.0 0.00 0.00 0.00 99 1006.4
20260506185300 26 174 0.0 0.0 0.00 0.00 0.00 99 1006.4
20260506185200 26 174 0.0 0.0 0.00 0.00 0.00 99 1006.4
20260506185100 26 174 0.0 0.0 0.00 0.00 0.00 99 1006.4
20260506185000 26 174 0.0 0.0 0.00 0.00 0.00 99 1006.4
20260506184900 26 174 0.0 0.0 0.00 0.00 0.00 99 1006.4
20260506184800 26 174 0.0 0.0 0.00 0.00 0.00 99 1006.5
20260506184700 26 174 0.0 0.0 0.00 0.00 0.00 99 1006.5
20260506184601 26 174 0.0 0.0 0.00 0.00 0.00 99 1006.5
20260506184500 26 174 0.0 0.0 0.00 0.00 0.00 99 1006.5
20260506184359 27 174 0.0 0.0 0.00 0.00 0.00 99 1006.5
20260506184300 27 174 0.0 0.0 0.00 0.00 0.00 99 1006.5
20260506184200 27 174 0.0 0.0 0.00 0.00 0.00 99 1006.5
20260506184059 27 174 0.0 0.0 0.00 0.00 0.00 99 1006.6
20260506183959 27 174 0.0 0.0 0.00 0.00 0.00 99 1006.6
20260506183900 27 174 0.0 0.0 0.00 0.00 0.00 99 1006.6
20260506183800 27 174 0.0 0.0 0.00 0.00 0.00 99 1006.6
20260506183659 27 174 0.0 0.0 0.00 0.00 0.00 99 1006.6
20260506183600 27 174 0.0 0.0 0.00 0.00 0.00 99 1006.7
20260506183500 27 174 0.0 0.0 0.00 0.00 0.00 99 1006.7
20260506183359 27 174 0.0 0.0 0.00 0.00 0.00 99 1006.7
20260506183300 27 174 0.0 0.0 0.00 0.00 0.00 99 1006.7
20260506183159 27 174 0.0 0.0 0.00 0.00 0.00 99 1006.7
20260506183101 27 174 0.0 0.0 0.00 0.00 0.00 99 1006.7
20260506183000 27 174 0.0 0.0 0.00 0.00 0.00 99 1006.7
20260506182859 27 174 0.0 0.0 0.00 0.00 0.00 99 1006.8
20260506182759 27 174 0.0 1.6 0.00 0.00 0.00 99 1006.8
20260506182700 27 174 1.6 1.6 0.00 0.00 0.00 99 1006.8
20260506182559 27 174 1.6 1.6 0.00 0.00 0.00 99 1006.8
20260506182459 27 174 1.6 1.6 0.00 0.00 0.00 99 1006.8
20260506182359 27 185 1.6 3.2 0.00 0.00 0.00 99 1006.8
20260506182259 27 185 3.2 1.6 0.00 0.00 0.00 99 1006.8
20260506182159 27 199 1.6 3.2 0.00 0.00 0.00 99 1006.8
20260506182059 27 199 3.2 0.0 0.00 0.00 0.00 99 1006.8
20260506181959 27 216 0.0 1.6 0.00 0.00 0.00 99 1006.8
20260506181859 27 216 1.6 0.0 0.00 0.00 0.00 99 1006.9
20260506181759 27 228 0.0 0.0 0.00 0.00 0.00 99 1006.9
20260506181659 27 228 0.0 0.0 0.00 0.00 0.00 99 1006.9
20260506181601 27 228 0.0 0.0 0.00 0.00 0.00 99 1006.9
20260506181459 27 228 0.0 1.6 0.00 0.00 0.00 99 1006.9
20260506181359 27 228 0.0 1.6 0.00 0.00 0.00 99 1006.9
20260506181259 27 228 1.6 1.6 0.00 0.00 0.00 99 1006.9
20260506181159 27 228 1.6 1.6 0.00 0.00 0.00 99 1006.9
20260506181059 27 228 1.6 1.6 0.00 0.00 0.00 99 1007.0
20260506180959 27 228 1.6 1.6 0.00 0.00 0.00 99 1007.0
20260506180859 27 228 1.6 1.6 0.00 0.00 0.00 99 1007.0
20260506180759 27 228 1.6 0.0 0.00 0.00 0.00 99 1007.0
20260506180659 27 228 0.0 1.6 0.00 0.00 0.00 99 1007.0
20260506180559 27 228 1.6 1.6 0.00 0.00 0.00 99 1007.0
20260506180459 27 228 1.6 0.0 0.00 0.00 0.00 99 1007.0
20260506180359 27 228 0.0 1.6 0.00 0.00 0.00 99 1007.1
20260506180259 27 228 1.6 0.0 0.00 0.00 0.00 99 1007.1
20260506180159 27 228 0.0 0.0 0.00 0.00 0.00 99 1007.1
20260506175959 27 228 0.0 0.0 0.00 0.00 0.00 99 1007.1
20260506175859 27 228 0.0 0.0 0.00 0.00 0.00 99 1007.1
20260506175759 26 228 0.0 0.0 0.00 0.00 0.00 99 1007.1
20260506175659 26 228 0.0 0.0 0.00 0.00 0.00 99 1007.2
20260506175559 27 228 0.0 0.0 0.00 0.00 0.00 99 1007.2
20260506175459 27 228 0.0 3.2 0.00 0.00 0.00 99 1007.2
20260506175359 27 228 1.6 3.2 0.00 0.00 0.00 99 1007.2
20260506175259 27 229 3.2 3.2 0.00 0.00 0.00 99 1007.2
20260506175159 27 236 3.2 3.2 0.00 0.00 0.00 99 1007.2
20260506175059 27 236 3.2 3.2 0.00 0.00 0.00 99 1007.2
20260506174959 27 236 3.2 4.8 0.00 0.00 0.00 99 1007.2
20260506174859 27 236 4.8 4.8 0.00 0.00 0.00 99 1007.2
20260506174759 27 236 4.8 4.8 0.00 0.00 0.00 99 1007.2
20260506174659 27 236 4.8 4.8 0.00 0.00 0.00 99 1007.3
20260506174601 26 228 4.8 3.2 0.00 0.00 0.00 99 1007.3
20260506174459 26 226 3.2 1.6 0.00 0.00 0.00 99 1007.3
20260506174359 26 226 3.2 3.2 0.00 0.00 0.00 99 1007.3
20260506174259 26 226 3.2 1.6 0.00 0.00 0.00 99 1007.3
20260506174159 26 226 1.6 0.0 0.00 0.00 0.00 99 1007.3
20260506174059 26 226 0.0 0.0 0.00 0.00 0.00 99 1007.3
20260506173959 26 226 0.0 0.0 0.00 0.00 0.00 99 1007.3
20260506173859 26 226 0.0 0.0 0.00 0.00 0.00 99 1007.3
20260506173759 26 226 0.0 0.0 0.00 0.00 0.00 99 1007.3
20260506173659 26 226 0.0 0.0 0.00 0.00 0.00 99 1007.3
20260506173559 26 226 0.0 1.6 0.00 0.00 0.00 99 1007.3
20260506173459 26 226 1.6 1.6 0.00 0.00 0.00 99 1007.3
20260506173359 26 226 1.6 0.0 0.00 0.00 0.00 99 1007.3
20260506173259 26 245 0.0 0.0 0.00 0.00 0.00 99 1007.4
20260506173159 26 245 0.0 1.6 0.00 0.00 0.00 99 1007.4
20260506173101 26 245 1.6 1.6 0.00 0.00 0.00 99 1007.4
20260506172959 26 245 1.6 1.6 0.00 0.00 0.00 99 1007.4
20260506172859 26 245 1.6 1.6 0.00 0.00 0.00 99 1007.5
20260506172759 26 245 1.6 1.6 0.00 0.00 0.00 99 1007.5
20260506172659 26 245 1.6 1.6 0.00 0.00 0.00 99 1007.5
20260506172559 26 245 1.6 1.6 0.00 0.00 0.00 99 1007.5
20260506172459 26 245 1.6 1.6 0.00 0.00 0.00 99 1007.5
20260506172359 26 245 1.6 1.6 0.00 0.00 0.00 99 1007.5
20260506172259 26 245 1.6 1.6 0.00 0.00 0.00 99 1007.5
20260506172159 26 245 1.6 1.6 0.00 0.00 0.00 99 1007.5
20260506172059 26 245 1.6 3.2 0.00 0.00 0.00 99 1007.5
20260506171959 27 245 3.2 1.6 0.00 0.00 0.00 99 1007.5
20260506171901 27 245 1.6 1.6 0.00 0.00 0.00 99 1007.6
20260506171759 26 245 1.6 3.2 0.00 0.00 0.00 99 1007.6
20260506171659 27 244 3.2 1.6 0.00 0.00 0.00 99 1007.6
20260506171601 27 242 1.6 0.0 0.00 0.00 0.00 99 1007.6
20260506171459 27 167 0.0 0.0 0.00 0.00 0.00 99 1007.6
20260506171359 27 167 0.0 0.0 0.00 0.00 0.00 99 1007.6
20260506171259 27 167 0.0 0.0 0.00 0.00 0.00 99 1007.6
20260506171159 27 167 0.0 0.0 0.00 0.00 0.00 99 1007.6
20260506171059 27 167 0.0 0.0 0.00 0.00 0.00 99 1007.6
20260506170959 27 167 0.0 0.0 0.00 0.00 0.00 99 1007.6
20260506170859 27 167 0.0 0.0 0.00 0.00 0.00 99 1007.6
20260506170759 27 167 0.0 0.0 0.00 0.00 0.00 99 1007.6
20260506170659 27 167 0.0 0.0 0.00 0.00 0.00 99 1007.6
20260506170559 27 167 0.0 0.0 0.00 0.00 0.00 99 1007.6
20260506170459 27 166 0.0 0.0 0.00 0.00 0.00 99 1007.6
20260506170359 27 165 0.0 0.0 0.00 0.00 0.00 99 1007.6
20260506170259 27 165 0.0 0.0 0.00 0.00 0.00 99 1007.6
20260506170159 27 165 0.0 0.0 0.00 0.00 0.00 99 1007.6
20260506170059 27 165 0.0 0.0 0.00 0.00 0.00 99 1007.6
20260506165959 27 165 0.0 0.0 0.00 0.00 0.00 99 1007.6
20260506165859 27 165 0.0 0.0 0.00 0.00 0.00 99 1007.6
20260506165759 27 165 0.0 0.0 0.00 0.00 0.00 99 1007.6
20260506165659 27 165 0.0 0.0 0.00 0.00 0.00 99 1007.6
20260506165559 27 165 0.0 0.0 0.00 0.00 0.00 99 1007.6
20260506165459 27 165 0.0 1.6 0.00 0.00 0.00 99 1007.6
20260506165359 27 165 0.0 0.0 0.00 0.00 0.00 99 1007.6
20260506165259 27 165 0.0 1.6 0.00 0.00 0.00 99 1007.7
20260506165159 27 167 1.6 1.6 0.00 0.00 0.00 99 1007.7
20260506165059 27 167 1.6 1.6 0.00 0.00 0.00 99 1007.7
20260506164959 27 167 1.6 1.6 0.00 0.00 0.00 99 1007.7
20260506164859 27 167 1.6 3.2 0.00 0.00 0.00 99 1007.7
20260506164759 27 167 3.2 3.2 0.00 0.00 0.00 99 1007.7
20260506164659 27 167 3.2 3.2 0.00 0.00 0.00 99 1007.7
20260506164601 27 167 3.2 3.2 0.00 0.00 0.00 99 1007.7
20260506164459 27 167 3.2 3.2 0.00 0.00 0.00 99 1007.7
20260506164359 27 167 3.2 1.6 0.00 0.00 0.00 99 1007.7
20260506164259 27 164 1.6 3.2 0.00 0.00 0.00 99 1007.7
20260506164159 27 164 3.2 4.8 0.00 0.00 0.00 99 1007.7
20260506164059 27 164 4.8 4.8 0.00 0.00 0.00 99 1007.7
20260506163959 27 163 4.8 3.2 0.00 0.00 0.00 99 1007.7
20260506163859 27 150 3.2 3.2 0.00 0.00 0.00 99 1007.7
20260506163759 27 150 3.2 3.2 0.00 0.00 0.00 99 1007.8
20260506163659 27 141 3.2 3.2 0.00 0.00 0.00 99 1007.8
20260506163559 27 137 3.2 1.6 0.00 0.00 0.00 99 1007.8
20260506163459 27 139 1.6 0.0 0.00 0.00 0.00 99 1007.8
20260506163359 27 139 3.2 1.6 0.00 0.00 0.00 99 1007.8
20260506163259 27 139 1.6 1.6 0.00 0.00 0.00 99 1007.8
20260506163159 27 139 1.6 1.6 0.00 0.00 0.00 99 1007.8
20260506163059 27 139 1.6 0.0 0.00 0.00 0.00 99 1007.8
20260506162959 27 162 0.0 0.0 0.00 0.00 0.00 99 1007.8
20260506162859 27 177 0.0 0.0 0.00 0.00 0.00 99 1007.8
20260506162759 27 177 0.0 0.0 0.00 0.00 0.00 99 1007.8
20260506162659 27 177 0.0 0.0 0.00 0.00 0.00 99 1007.8
20260506162558 27 177 0.0 0.0 0.00 0.00 0.00 99 1007.8
20260506162458 27 182 0.0 0.0 0.00 0.00 0.00 99 1007.8
20260506162359 27 182 0.0 0.0 0.00 0.00 0.00 99 1007.8
20260506162259 27 182 0.0 0.0 0.00 0.00 0.00 99 1007.8
20260506162158 27 182 0.0 0.0 0.00 0.00 0.00 99 1007.8
20260506162058 27 182 0.0 0.0 0.00 0.00 0.00 99 1007.8
20260506161959 27 182 0.0 0.0 0.00 0.00 0.00 99 1007.8
20260506161858 27 182 0.0 0.0 0.00 0.00 0.00 99 1007.8
20260506161758 27 182 0.0 0.0 0.00 0.00 0.00 99 1007.8
20260506161658 27 182 0.0 0.0 0.00 0.00 0.00 99 1007.8
20260506161604 27 182 0.0 0.0 0.00 0.00 0.00 99 1007.8
20260506161458 27 182 0.0 0.0 0.00 0.00 0.00 99 1007.8
20260506161358 27 182 0.0 0.0 0.00 0.00 0.00 99 1007.8
20260506161258 27 182 0.0 0.0 0.00 0.00 0.00 99 1007.8
20260506161158 27 182 0.0 0.0 0.00 0.00 0.00 99 1007.8
20260506161058 27 182 0.0 0.0 0.00 0.00 0.00 99 1007.8
20260506160958 27 185 0.0 0.0 0.00 0.00 0.00 99 1007.8
20260506160858 27 186 0.0 0.0 0.00 0.00 0.00 99 1007.8
20260506160758 27 186 0.0 0.0 0.00 0.00 0.00 99 1007.8
20260506160658 27 186 0.0 0.0 0.00 0.00 0.00 99 1007.8
20260506160558 27 186 0.0 0.0 0.00 0.00 0.00 99 1007.8
20260506160458 27 186 0.0 0.0 0.00 0.00 0.00 99 1007.9
20260506160358 27 186 0.0 0.0 0.00 0.00 0.00 99 1007.9
20260506160258 27 186 0.0 0.0 0.00 0.00 0.00 99 1007.9
20260506160158 27 186 0.0 0.0 0.00 0.00 0.00 99 1007.9
20260506160058 27 186 0.0 0.0 0.00 0.00 0.00 99 1007.9
20260506155958 27 186 0.0 0.0 0.00 0.00 0.00 99 1007.9
20260506155858 27 186 0.0 0.0 0.00 0.00 0.00 99 1007.9
20260506155758 27 186 0.0 0.0 0.00 0.00 0.00 99 1007.9
20260506155658 27 186 0.0 0.0 0.00 0.00 0.00 99 1007.9
20260506155558 27 186 0.0 0.0 0.00 0.00 0.00 99 1007.9
20260506155458 27 186 0.0 0.0 0.00 0.00 0.00 99 1007.9
20260506155358 27 186 0.0 0.0 0.00 0.00 0.00 99 1007.9
20260506155258 27 186 0.0 1.6 0.00 0.00 0.00 99 1007.9
20260506155158 27 186 1.6 0.0 0.00 0.00 0.00 99 1007.9
20260506155058 27 184 0.0 0.0 0.00 0.00 0.00 99 1007.9
20260506154958 27 184 0.0 0.0 0.00 0.00 0.00 99 1007.9
20260506154858 27 184 0.0 0.0 0.00 0.00 0.00 99 1007.9
20260506154758 27 183 0.0 0.0 0.00 0.00 0.00 99 1007.9
20260506154658 27 150 0.0 0.0 0.00 0.00 0.00 99 1007.9
20260506154600 27 150 0.0 0.0 0.00 0.00 0.00 99 1007.9
20260506154458 27 150 0.0 1.6 0.00 0.00 0.00 99 1007.9
20260506154358 27 150 0.0 0.0 0.00 0.00 0.00 99 1007.9
20260506154258 27 150 0.0 1.6 0.00 0.00 0.00 99 1007.9
20260506154158 27 150 1.6 3.2 0.00 0.00 0.00 99 1007.9
20260506154058 27 150 3.2 3.2 0.00 0.00 0.00 99 1007.8
20260506153958 27 145 3.2 3.2 0.00 0.00 0.00 99 1007.8
20260506153858 27 143 3.2 0.0 0.00 0.00 0.00 99 1007.8
20260506153758 27 143 0.0 1.6 0.00 0.00 0.00 99 1007.8
20260506153658 27 143 1.6 3.2 0.00 0.00 0.00 99 1007.8
20260506153558 27 143 3.2 1.6 0.00 0.00 0.00 99 1007.8
20260506153458 27 142 1.6 3.2 0.00 0.00 0.00 99 1007.8
20260506153358 27 146 4.8 3.2 0.00 0.00 0.00 99 1007.8
20260506153258 27 146 3.2 3.2 0.00 0.00 0.00 99 1007.8
20260506153158 27 145 3.2 3.2 0.00 0.00 0.00 99 1007.8
20260506153100 27 145 3.2 3.2 0.00 0.00 0.00 99 1007.8
20260506152958 27 151 3.2 3.2 0.00 0.00 0.00 99 1007.8
20260506152858 27 151 3.2 3.2 0.00 0.00 0.00 99 1007.8
20260506152758 27 151 3.2 3.2 0.00 0.00 0.00 99 1007.8
20260506152658 27 143 3.2 3.2 0.00 0.00 0.00 99 1007.7
20260506152558 27 143 3.2 3.2 0.00 0.00 0.00 99 1007.7
20260506152458 27 140 3.2 3.2 0.00 0.00 0.00 99 1007.7
20260506152358 27 143 3.2 3.2 0.00 0.00 0.00 99 1007.7
20260506152258 27 149 3.2 3.2 0.00 0.00 0.00 99 1007.7
20260506152158 27 156 3.2 3.2 0.00 0.00 0.00 99 1007.7
20260506152058 27 153 4.8 3.2 0.00 0.00 0.00 99 1007.6
20260506152012 27 157 3.2 4.8 0.00 0.00 0.00 99 1007.6
20260506151458 27 158 3.2 1.6 0.00 0.00 0.00 99 1007.6
20260506151400 27 154 4.8 4.8 0.00 0.00 0.00 99 1007.6
20260506151258 27 154 4.8 3.2 0.00 0.00 0.00 99 1007.5
20260506151158 27 149 3.2 1.6 0.00 0.00 0.00 99 1007.5
20260506151058 27 149 1.6 1.6 0.00 0.00 0.00 99 1007.5
20260506150958 27 149 1.6 1.6 0.00 0.00 0.00 99 1007.5
20260506150858 27 149 1.6 0.0 0.00 0.00 0.00 99 1007.5
20260506150758 27 127 0.0 0.0 0.00 0.00 0.00 99 1007.5
20260506150658 27 127 0.0 0.0 0.00 0.00 0.00 99 1007.5
20260506150558 27 127 0.0 0.0 0.00 0.00 0.00 99 1007.5
20260506150458 27 127 0.0 1.6 0.00 0.00 0.00 99 1007.5
20260506150358 27 127 1.6 1.6 0.00 0.00 0.00 99 1007.5
20260506150303 27 127 1.6 0.0 0.00 0.00 0.00 99 1007.4
20260506150158 27 127 0.0 1.6 0.00 0.00 0.00 99 1007.4
20260506150058 27 127 1.6 1.6 0.00 0.00 0.00 99 1007.4
20260506145958 27 127 1.6 1.6 0.00 0.00 0.00 99 1007.4
20260506145858 27 127 1.6 1.6 0.00 0.00 0.00 99 1007.4
20260506145758 27 127 1.6 1.6 0.00 0.00 0.00 99 1007.4
20260506145658 27 127 1.6 3.2 0.00 0.00 0.00 99 1007.4
20260506145558 27 127 3.2 3.2 0.00 0.00 0.00 99 1007.4
20260506145459 27 118 3.2 3.2 0.00 0.00 0.00 99 1007.4
20260506145358 27 118 3.2 3.2 0.00 0.00 0.00 99 1007.4
20260506145258 27 118 3.2 3.2 0.00 0.00 0.00 99 1007.4
20260506145158 27 118 3.2 1.6 0.00 0.00 0.00 99 1007.4
20260506145058 27 118 1.6 1.6 0.00 0.00 0.00 99 1007.4
20260506144958 27 118 1.6 3.2 0.00 0.00 0.00 99 1007.4
20260506144858 27 118 3.2 3.2 0.00 0.00 0.00 99 1007.3
20260506144758 27 110 3.2 3.2 0.00 0.00 0.00 99 1007.3
20260506144658 27 110 3.2 3.2 0.00 0.00 0.00 99 1007.3
20260506144558 27 110 3.2 3.2 0.00 0.00 0.00 99 1007.3
20260506144458 27 107 3.2 3.2 0.00 0.00 0.00 99 1007.3
20260506144358 27 105 3.2 3.2 0.00 0.00 0.00 99 1007.3
20260506144258 27 104 3.2 3.2 0.00 0.00 0.00 99 1007.2
20260506144158 27 89 3.2 3.2 0.00 0.00 0.00 99 1007.2
20260506144058 27 87 3.2 3.2 0.00 0.00 0.00 99 1007.2
20260506143958 27 87 3.2 3.2 0.00 0.00 0.00 99 1007.2
20260506143858 27 87 3.2 1.6 0.00 0.00 0.00 99 1007.2
20260506143758 27 116 1.6 3.2 0.00 0.00 0.00 99 1007.2
20260506143658 27 116 3.2 1.6 0.00 0.00 0.00 98 1007.1
20260506143558 27 130 1.6 1.6 0.00 0.00 0.00 98 1007.1
20260506143458 27 130 1.6 1.6 0.00 0.00 0.00 98 1007.1
20260506143358 27 130 1.6 3.2 0.00 0.00 0.00 98 1007.1
20260506143258 27 130 3.2 3.2 0.00 0.00 0.00 98 1007.1
20260506143158 27 135 3.2 1.6 0.00 0.00 0.00 98 1007.0
20260506143058 27 135 1.6 1.6 0.00 0.00 0.00 98 1007.0
20260506142958 27 142 1.6 1.6 0.00 0.00 0.00 98 1007.0
20260506142858 27 142 1.6 0.0 0.00 0.00 0.00 98 1007.0
20260506142758 27 154 0.0 1.6 0.00 0.00 0.00 98 1007.0
20260506142658 28 154 1.6 3.2 0.00 0.00 0.00 98 1007.0
20260506142558 28 154 3.2 3.2 0.00 0.00 0.00 97 1006.9
20260506142458 28 169 3.2 1.6 0.00 0.00 0.00 97 1006.9
20260506142358 28 169 3.2 1.6 0.00 0.00 0.00 97 1006.9
20260506142258 28 177 1.6 3.2 0.00 0.00 0.00 97 1006.9
20260506142158 28 177 3.2 1.6 0.00 0.00 0.00 97 1006.9
20260506142058 28 160 1.6 1.6 0.00 0.00 0.00 97 1006.9
20260506141958 28 160 1.6 1.6 0.00 0.00 0.00 97 1006.9
20260506141858 28 160 1.6 1.6 0.00 0.00 0.00 97 1006.8
20260506141758 28 156 1.6 1.6 0.00 0.00 0.00 97 1006.8
20260506141657 28 156 1.6 3.2 0.00 0.00 0.00 97 1006.8
20260506141601 28 156 3.2 3.2 0.00 0.00 0.00 97 1006.8
20260506141457 28 156 3.2 1.6 0.00 0.00 0.00 97 1006.8
20260506141358 27 158 0.0 0.0 0.00 0.00 0.00 97 1006.8
20260506141257 27 158 0.0 1.6 0.00 0.00 0.00 98 1006.8
20260506141158 27 158 1.6 1.6 0.00 0.00 0.00 98 1006.7
20260506141057 27 158 1.6 0.0 0.00 0.00 0.00 98 1006.7
20260506140957 27 156 0.0 0.0 0.00 0.00 0.00 98 1006.7
20260506140857 27 159 0.0 1.6 0.00 0.00 0.00 98 1006.7
20260506140758 27 159 1.6 3.2 0.00 0.00 0.00 98 1006.7
20260506140657 27 159 3.2 3.2 0.00 0.00 0.00 98 1006.7
20260506140557 27 152 3.2 3.2 0.00 0.00 0.00 98 1006.6
20260506140457 27 152 3.2 3.2 0.00 0.00 0.00 98 1006.6
20260506140357 27 146 3.2 3.2 0.00 0.00 0.00 99 1006.6
20260506140257 27 146 3.2 3.2 0.00 0.00 0.00 99 1006.6
20260506140157 27 139 3.2 3.2 0.00 0.00 0.00 99 1006.6
20260506140057 27 130 3.2 1.6 0.00 0.00 0.00 99 1006.6
20260506135957 27 119 1.6 3.2 0.00 0.00 0.00 99 1006.6
20260506135858 27 118 3.2 3.2 0.00 0.00 0.00 99 1006.6
20260506135757 27 107 3.2 3.2 0.00 0.00 0.00 98 1006.5
20260506135657 27 107 3.2 3.2 0.00 0.00 0.00 98 1006.5
20260506135557 27 107 3.2 3.2 0.00 0.00 0.00 98 1006.5
20260506135457 27 107 3.2 3.2 0.00 0.00 0.00 98 1006.5
20260506135357 27 107 3.2 3.2 0.00 0.00 0.00 98 1006.5
20260506135257 27 107 3.2 3.2 0.00 0.00 0.00 98 1006.5
20260506135157 27 107 3.2 3.2 0.00 0.00 0.00 98 1006.5
20260506135057 27 108 3.2 3.2 0.00 0.00 0.00 98 1006.5
20260506134957 27 122 3.2 1.6 0.00 0.00 0.00 98 1006.5
20260506134857 27 122 1.6 3.2 0.00 0.00 0.00 98 1006.4
20260506134757 27 123 3.2 3.2 0.00 0.00 0.00 98 1006.4
20260506134657 27 111 3.2 1.6 0.00 0.00 0.00 98 1006.4
20260506134557 27 120 1.6 3.2 0.00 0.00 0.00 98 1006.4
20260506134457 27 120 3.2 4.8 0.00 0.00 0.00 98 1006.4
20260506134357 27 106 4.8 4.8 0.00 0.00 0.00 98 1006.4
20260506134257 27 108 4.8 4.8 0.00 0.00 0.00 98 1006.3
20260506134157 27 91 4.8 4.8 0.00 0.00 0.00 98 1006.3
20260506134057 27 93 4.8 4.8 0.00 0.00 0.00 97 1006.3
20260506133957 27 104 4.8 4.8 0.00 0.00 0.00 97 1006.3
20260506133857 27 93 4.8 4.8 0.00 0.00 0.00 97 1006.3
20260506133757 27 97 4.8 4.8 0.00 0.00 0.00 97 1006.3
20260506133657 27 104 4.8 4.8 0.00 0.00 0.00 97 1006.3
20260506133557 27 91 4.8 3.2 0.00 0.00 0.00 97 1006.3
20260506133457 27 99 3.2 3.2 0.00 0.00 0.00 97 1006.3
20260506133357 27 91 3.2 3.2 0.00 0.00 0.00 97 1006.3
20260506133257 27 107 3.2 3.2 0.00 0.00 0.00 97 1006.3
20260506133157 28 107 3.2 3.2 0.00 0.00 0.00 96 1006.3
20260506133057 28 120 3.2 3.2 0.00 0.00 0.00 96 1006.3
20260506132957 28 119 3.2 3.2 0.00 0.00 0.00 96 1006.3
20260506132857 28 119 3.2 3.2 0.00 0.00 0.00 96 1006.3
20260506132757 28 119 3.2 1.6 0.00 0.00 0.00 96 1006.3
20260506132657 28 119 1.6 3.2 0.00 0.00 0.00 97 1006.3
20260506132557 28 107 3.2 3.2 0.00 0.00 0.00 96 1006.2
20260506132457 27 106 3.2 4.8 0.00 0.00 0.00 96 1006.2
20260506132357 28 103 3.2 3.2 0.00 0.00 0.00 96 1006.2
20260506132257 27 101 3.2 3.2 0.00 0.00 0.00 96 1006.2
20260506132157 27 97 3.2 4.8 0.00 0.00 0.00 96 1006.2
20260506132057 27 90 4.8 4.8 0.00 0.00 0.00 96 1006.2
20260506131957 27 85 4.8 4.8 0.00 0.00 0.00 96 1006.2
20260506131857 27 86 4.8 6.4 0.00 0.00 0.00 96 1006.2
20260506131757 27 77 6.4 4.8 0.00 0.00 0.00 96 1006.2
20260506131657 27 81 4.8 4.8 0.00 0.00 0.00 96 1006.2
20260506131603 28 86 4.8 4.8 0.00 0.00 0.00 96 1006.1
20260506131457 28 88 4.8 3.2 0.00 0.00 0.00 96 1006.1
20260506131357 28 84 4.8 4.8 0.00 0.00 0.00 96 1006.1
20260506131257 28 82 4.8 4.8 0.00 0.00 0.00 96 1006.1
20260506131157 28 91 4.8 4.8 0.00 0.00 0.00 95 1006.1
20260506131057 28 93 4.8 4.8 0.00 0.00 0.00 95 1006.1
20260506130957 28 97 4.8 3.2 0.00 0.00 0.00 94 1006.1
20260506130858 28 96 3.2 4.8 0.00 0.00 0.00 94 1006.1
20260506130757 28 111 4.8 3.2 0.00 0.00 0.00 94 1006.1
20260506130657 28 114 3.2 0.0 0.00 0.00 0.00 94 1006.1
20260506130557 28 123 0.0 0.0 0.00 0.00 0.00 94 1006.1
20260506130457 28 128 0.0 0.0 0.00 0.00 0.00 93 1006.0
20260506130357 28 128 0.0 0.0 0.00 0.00 0.00 93 1006.0
20260506130257 28 123 0.0 0.0 0.00 0.00 0.00 93 1006.0
20260506130157 28 109 0.0 0.0 0.00 0.00 0.00 93 1006.0
20260506130100 28 138 0.0 0.0 0.00 0.00 0.00 93 1006.0
20260506125957 28 138 0.0 0.0 0.00 0.00 0.00 93 1006.0
20260506125857 28 138 0.0 0.0 0.00 0.00 0.00 93 1006.0
20260506125757 28 140 0.0 0.0 0.00 0.00 0.00 93 1006.0
20260506125657 28 125 0.0 0.0 0.00 0.00 0.00 93 1006.0
20260506125557 28 139 0.0 0.0 0.00 0.00 0.00 93 1005.9
20260506125457 28 132 0.0 1.6 0.00 0.00 0.00 93 1005.9
20260506125357 28 131 1.6 1.6 0.00 0.00 0.00 93 1005.9
20260506125257 28 131 1.6 3.2 0.00 0.00 0.00 93 1005.9
20260506125157 28 131 3.2 1.6 0.00 0.00 0.00 93 1005.9
20260506125057 28 139 1.6 0.0 0.00 0.00 0.00 93 1005.9
20260506124957 28 135 0.0 0.0 0.00 0.00 0.00 93 1005.9
20260506124857 28 135 0.0 0.0 0.00 0.00 0.00 93 1005.9
20260506124757 28 135 0.0 0.0 0.00 0.00 0.00 93 1005.8
20260506124657 28 113 0.0 0.0 0.00 0.00 0.00 93 1005.8
20260506124557 28 113 0.0 0.0 0.00 0.00 0.00 94 1005.8
20260506124457 28 94 0.0 4.8 0.00 0.00 0.00 93 1005.8
20260506124357 28 94 1.6 1.6 0.00 0.00 0.00 93 1005.8
20260506124257 28 94 1.6 3.2 0.00 0.00 0.00 93 1005.8
20260506124157 28 94 3.2 3.2 0.00 0.00 0.00 93 1005.7
20260506124057 28 88 3.2 3.2 0.00 0.00 0.00 93 1005.7
20260506123957 28 84 3.2 4.8 0.00 0.00 0.00 93 1005.7
20260506123857 28 85 4.8 4.8 0.00 0.00 0.00 93 1005.7
20260506123757 28 86 4.8 6.4 0.00 0.00 0.00 93 1005.7
20260506123657 28 90 6.4 4.8 0.00 0.00 0.00 93 1005.7
20260506123557 28 94 4.8 4.8 0.00 0.00 0.00 93 1005.6
20260506123457 28 77 4.8 4.8 0.00 0.00 0.00 93 1005.6
20260506123357 28 76 3.2 4.8 0.00 0.00 0.00 92 1005.6
20260506123257 28 75 4.8 6.4 0.00 0.00 0.00 92 1005.6
20260506123157 28 80 6.4 4.8 0.00 0.00 0.00 92 1005.6
20260506123057 28 81 4.8 4.8 0.00 0.00 0.00 92 1005.6
20260506122957 28 68 4.8 4.8 0.00 0.00 0.00 92 1005.6
20260506122857 28 84 4.8 4.8 0.00 0.00 0.00 92 1005.6
20260506122757 28 82 4.8 3.2 0.00 0.00 0.00 92 1005.6
20260506122657 28 73 3.2 4.8 0.00 0.00 0.00 92 1005.6
20260506122557 28 77 4.8 3.2 0.00 0.00 0.00 92 1005.6
20260506122457 28 82 3.2 3.2 0.00 0.00 0.00 92 1005.6
20260506122357 28 83 3.2 1.6 0.00 0.00 0.00 92 1005.6
20260506122257 28 92 1.6 4.8 0.00 0.00 0.00 92 1005.6
20260506122157 28 91 4.8 4.8 0.00 0.00 0.00 92 1005.6
20260506122057 28 81 4.8 3.2 0.00 0.00 0.00 92 1005.6
20260506121957 28 99 3.2 0.0 0.00 0.00 0.00 92 1005.6
20260506121857 28 115 0.0 1.6 0.00 0.00 0.00 93 1005.6
20260506121757 28 115 1.6 1.6 0.00 0.00 0.00 92 1005.6
20260506121657 28 116 1.6 3.2 0.00 0.00 0.00 92 1005.6
20260506121559 28 100 3.2 3.2 0.00 0.00 0.00 92 1005.6
20260506121457 28 97 3.2 4.8 0.00 0.00 0.00 92 1005.6
20260506121357 28 90 3.2 4.8 0.00 0.00 0.00 92 1005.5
20260506121257 28 90 4.8 4.8 0.00 0.00 0.00 92 1005.5
20260506121157 28 92 4.8 4.8 0.00 0.00 0.00 92 1005.5
20260506121057 28 86 4.8 4.8 0.00 0.00 0.00 92 1005.5
20260506120957 28 88 4.8 4.8 0.00 0.00 0.00 91 1005.5
20260506120857 28 78 4.8 4.8 0.00 0.00 0.00 91 1005.5
20260506120756 28 78 4.8 4.8 0.00 0.00 0.00 91 1005.5
20260506120656 28 80 4.8 6.4 0.00 0.00 0.00 91 1005.5
20260506120557 28 77 6.4 6.4 0.00 0.00 0.00 91 1005.4
20260506120456 28 87 6.4 4.8 0.00 0.00 0.00 91 1005.4
20260506120356 28 84 6.4 4.8 0.00 0.00 0.00 91 1005.4
20260506120257 28 83 4.8 4.8 0.00 0.00 0.00 91 1005.4
20260506120157 29 92 4.8 4.8 0.00 0.00 0.00 90 1005.4
20260506120056 29 86 4.8 4.8 0.00 0.00 0.00 90 1005.3
20260506115957 29 85 4.8 4.8 0.00 0.00 0.00 90 1005.3
20260506115856 29 78 4.8 4.8 0.00 0.00 0.00 90 1005.3
20260506115756 29 79 4.8 4.8 0.00 0.00 0.00 90 1005.3
20260506115656 29 86 4.8 6.4 0.00 0.00 0.00 90 1005.3
20260506115556 29 77 6.4 6.4 0.00 0.00 0.00 90 1005.2
20260506115456 29 67 6.4 8.0 0.00 0.00 0.00 90 1005.2
20260506115357 29 91 4.8 6.4 0.00 0.00 0.00 90 1005.2
20260506115256 29 78 6.4 8.0 0.00 0.00 0.00 89 1005.2
20260506115156 29 68 8.0 6.4 0.00 0.00 0.00 89 1005.2
20260506115056 29 83 6.4 8.0 0.00 0.00 0.00 89 1005.2
20260506114956 29 66 8.0 8.0 0.00 0.00 0.00 89 1005.2
20260506114856 29 96 8.0 6.4 0.00 0.00 0.00 89 1005.2
20260506114756 29 78 6.4 8.0 0.00 0.00 0.00 89 1005.1
20260506114656 29 72 8.0 6.4 0.00 0.00 0.00 89 1005.1
20260506114556 29 83 6.4 6.4 0.00 0.00 0.00 89 1005.1
20260506114456 29 75 6.4 8.0 0.00 0.00 0.00 89 1005.1
20260506114356 29 78 8.0 9.7 0.00 0.00 0.00 89 1005.1
20260506114256 29 70 9.7 6.4 0.00 0.00 0.00 89 1005.0
20260506114156 29 67 6.4 4.8 0.00 0.00 0.00 89 1005.0
20260506114056 29 58 4.8 8.0 0.00 0.00 0.00 89 1005.0
20260506113956 29 80 8.0 9.7 0.00 0.00 0.00 89 1005.0
20260506113856 29 68 9.7 6.4 0.00 0.00 0.00 89 1005.0
20260506113756 29 66 6.4 8.0 0.00 0.00 0.00 89 1005.0
20260506113656 29 104 8.0 8.0 0.00 0.00 0.00 89 1005.0
20260506113556 29 67 8.0 6.4 0.00 0.00 0.00 89 1004.9
20260506113456 29 82 6.4 9.7 0.00 0.00 0.00 89 1004.9
20260506113356 29 75 6.4 9.7 0.00 0.00 0.00 89 1004.9
20260506113256 29 75 9.7 8.0 0.00 0.00 0.00 88 1004.9
20260506113156 29 79 8.0 8.0 0.00 0.00 0.00 88 1004.9
20260506113056 29 79 8.0 11.3 0.00 0.00 0.00 88 1004.9
20260506112957 29 61 11.3 8.0 0.00 0.00 0.00 88 1004.9
20260506112856 29 73 8.0 8.0 0.00 0.00 0.00 88 1004.9
20260506112756 29 61 8.0 9.7 0.00 0.00 0.00 88 1004.9
20260506112656 30 98 9.7 9.7 0.00 0.00 0.00 88 1004.9
20260506112557 30 83 9.7 11.3 0.00 0.00 0.00 88 1004.9
20260506112456 30 76 11.3 8.0 0.00 0.00 0.00 88 1004.9
20260506112356 30 78 8.0 9.7 0.00 0.00 0.00 88 1004.9
20260506112256 30 72 9.7 9.7 0.00 0.00 0.00 88 1004.9
20260506112156 30 64 9.7 8.0 0.00 0.00 0.00 88 1004.9
20260506112056 30 71 8.0 8.0 0.00 0.00 0.00 88 1004.9
20260506111956 30 80 8.0 6.4 0.00 0.00 0.00 88 1004.9
20260506111856 30 78 6.4 6.4 0.00 0.00 0.00 88 1004.8
20260506111756 30 75 6.4 6.4 0.00 0.00 0.00 88 1004.8
20260506111656 30 62 6.4 9.7 0.00 0.00 0.00 88 1004.8
20260506111559 30 81 9.7 9.7 0.00 0.00 0.00 88 1004.8
20260506111456 30 58 9.7 9.7 0.00 0.00 0.00 88 1004.8
20260506111356 30 72 9.7 11.3 0.00 0.00 0.00 88 1004.7
20260506111256 30 81 11.3 9.7 0.00 0.00 0.00 88 1004.7
20260506111156 30 76 9.7 9.7 0.00 0.00 0.00 88 1004.7
20260506111056 30 64 9.7 8.0 0.00 0.00 0.00 88 1004.7
20260506110956 30 94 8.0 9.7 0.00 0.00 0.00 88 1004.7
20260506110856 30 85 9.7 9.7 0.00 0.00 0.00 88 1004.6
20260506110756 30 76 9.7 11.3 0.00 0.00 0.00 88 1004.6
20260506110656 30 75 11.3 11.3 0.00 0.00 0.00 89 1004.6
20260506110556 30 87 11.3 9.7 0.00 0.00 0.00 89 1004.6
20260506110456 30 53 9.7 11.3 0.00 0.00 0.00 89 1004.5
20260506110356 30 71 8.0 6.4 0.00 0.00 0.00 89 1004.5
20260506110256 30 94 6.4 8.0 0.00 0.00 0.00 89 1004.5
20260506110156 30 83 8.0 8.0 0.00 0.00 0.00 89 1004.5
20260506110056 30 83 8.0 11.3 0.00 0.00 0.00 89 1004.5
20260506105956 30 72 11.3 8.0 0.00 0.00 0.00 89 1004.4
20260506105856 30 88 8.0 8.0 0.00 0.00 0.00 89 1004.4
20260506105756 30 64 8.0 14.5 0.00 0.00 0.00 89 1004.4
20260506105656 30 71 14.5 12.9 0.00 0.00 0.00 89 1004.4
20260506105556 30 65 12.9 9.7 0.00 0.00 0.00 89 1004.4
20260506105456 30 71 9.7 11.3 0.00 0.00 0.00 89 1004.4
20260506105356 30 44 12.9 11.3 0.00 0.00 0.00 89 1004.4
20260506105256 30 48 11.3 9.7 0.00 0.00 0.00 89 1004.4
20260506105156 30 39 9.7 9.7 0.00 0.00 0.00 89 1004.4
20260506105056 30 46 9.7 8.0 0.00 0.00 0.00 89 1004.4
20260506104956 30 24 8.0 11.3 0.00 0.00 0.00 89 1004.4
20260506104856 30 56 11.3 12.9 0.00 0.00 0.00 90 1004.3
20260506104756 30 24 12.9 12.9 0.00 0.00 0.00 89 1004.3
20260506104656 30 70 12.9 12.9 0.00 0.00 0.00 89 1004.3
20260506104557 30 70 12.9 12.9 0.00 0.00 0.00 89 1004.3
20260506104456 30 81 12.9 11.3 0.00 0.00 0.00 89 1004.3
20260506104356 30 37 14.5 11.3 0.00 0.00 0.00 89 1004.2
20260506104256 30 61 11.3 9.7 0.00 0.00 0.00 89 1004.2
20260506104156 30 46 9.7 9.7 0.00 0.00 0.00 89 1004.2
20260506104056 30 82 9.7 9.7 0.00 0.00 0.00 89 1004.1
20260506103956 30 74 9.7 8.0 0.00 0.00 0.00 89 1004.1
20260506103856 30 68 8.0 9.7 0.00 0.00 0.00 89 1004.1
20260506103756 30 56 9.7 9.7 0.00 0.00 0.00 89 1004.1
20260506103656 30 48 9.7 9.7 0.00 0.00 0.00 89 1004.0
20260506103556 30 80 9.7 9.7 0.00 0.00 0.00 89 1004.0
20260506103456 30 23 9.7 11.3 0.00 0.00 0.00 89 1004.0
20260506103356 30 63 14.5 14.5 0.00 0.00 0.00 89 1004.0
20260506103256 30 38 14.5 9.7 0.00 0.00 0.00 88 1003.9
20260506103156 30 51 9.7 9.7 0.00 0.00 0.00 88 1003.9
20260506103056 30 40 9.7 9.7 0.00 0.00 0.00 89 1003.9
20260506102956 30 42 9.7 11.3 0.00 0.00 0.00 89 1003.9
20260506102856 30 65 11.3 12.9 0.00 0.00 0.00 88 1003.9
20260506102756 30 66 12.9 12.9 0.00 0.00 0.00 88 1003.9
20260506102656 30 51 12.9 11.3 0.00 0.00 0.00 88 1003.9
20260506102556 30 62 11.3 9.7 0.00 0.00 0.00 88 1003.9
20260506102456 30 55 9.7 12.9 0.00 0.00 0.00 88 1004.0
20260506102356 30 52 12.9 9.7 0.00 0.00 0.00 88 1004.0
20260506102256 30 43 9.7 11.3 0.00 0.00 0.00 87 1004.0
20260506102156 30 60 11.3 12.9 0.00 0.00 0.00 87 1004.0
20260506102056 30 72 12.9 9.7 0.00 0.00 0.00 87 1004.0
20260506101956 30 50 9.7 16.1 0.00 0.00 0.00 86 1004.0
20260506101856 30 59 16.1 14.5 0.00 0.00 0.00 86 1004.0
20260506101756 30 51 14.5 12.9 0.00 0.00 0.00 86 1004.0
20260506101656 30 34 12.9 11.3 0.00 0.00 0.00 85 1004.1
20260506101556 30 69 11.3 12.9 0.00 0.00 0.00 85 1004.1
20260506101456 30 64 12.9 12.9 0.00 0.00 0.00 85 1004.1
20260506101356 30 71 14.5 14.5 0.00 0.00 0.00 85 1004.1
20260506101256 30 53 14.5 12.9 0.00 0.00 0.00 85 1004.1
20260506101156 30 39 12.9 17.7 0.00 0.00 0.00 85 1004.1
20260506101056 30 65 17.7 16.1 0.00 0.00 0.00 85 1004.1
20260506100956 30 75 16.1 11.3 0.00 0.00 0.00 85 1004.1
20260506100856 30 54 11.3 12.9 0.00 0.00 0.00 86 1004.1
20260506100756 30 41 12.9 12.9 0.00 0.00 0.00 86 1004.1
20260506100656 30 57 12.9 14.5 0.00 0.00 0.00 86 1004.1
20260506100556 30 70 14.5 16.1 0.00 0.00 0.00 86 1004.1
20260506100456 30 73 16.1 12.9 0.00 0.00 0.00 86 1004.1
20260506100356 30 88 12.9 11.3 0.00 0.00 0.00 86 1004.1
20260506100256 30 53 11.3 12.9 0.00 0.00 0.00 86 1004.1
20260506100156 30 37 12.9 16.1 0.00 0.00 0.00 86 1004.1
20260506100056 30 34 16.1 16.1 0.00 0.00 0.00 86 1004.1
20260506095956 30 63 16.1 16.1 0.00 0.00 0.00 86 1004.1
20260506095856 30 55 16.1 16.1 0.00 0.00 0.00 86 1004.1
20260506095756 30 72 16.1 14.5 0.00 0.00 0.00 86 1004.1
20260506095656 30 44 14.5 9.7 0.00 0.00 0.00 86 1004.2
20260506095456 30 46 11.3 12.9 0.00 0.00 0.00 86 1004.2
20260506095356 30 66 11.3 11.3 0.00 0.00 0.00 86 1004.2
20260506095256 30 58 11.3 14.5 0.00 0.00 0.00 87 1004.2
20260506095156 30 52 14.5 14.5 0.00 0.00 0.00 87 1004.2
20260506095056 30 41 14.5 11.3 0.00 0.00 0.00 86 1004.2
20260506094956 30 42 11.3 9.7 0.00 0.00 0.00 87 1004.2
20260506094856 30 43 9.7 11.3 0.00 0.00 0.00 87 1004.2
20260506094756 30 48 11.3 11.3 0.00 0.00 0.00 87 1004.2
20260506094655 30 28 11.3 11.3 0.00 0.00 0.00 87 1004.2
20260506094556 30 40 11.3 9.7 0.00 0.00 0.00 87 1004.2
20260506094456 30 70 9.7 12.9 0.00 0.00 0.00 87 1004.2
20260506094355 30 50 17.7 12.9 0.00 0.00 0.00 87 1004.2
20260506094256 30 43 12.9 11.3 0.00 0.00 0.00 87 1004.2
20260506094156 30 74 11.3 14.5 0.00 0.00 0.00 87 1004.2
20260506094055 30 13 14.5 12.9 0.00 0.00 0.00 86 1004.2
20260506093956 30 46 12.9 9.7 0.00 0.00 0.00 86 1004.2
20260506093855 30 19 9.7 12.9 0.00 0.00 0.00 87 1004.2
20260506093755 30 45 12.9 11.3 0.00 0.00 0.00 86 1004.2
20260506093655 30 45 11.3 14.5 0.00 0.00 0.00 86 1004.2
20260506093555 30 28 14.5 16.1 0.00 0.00 0.00 86 1004.2
20260506093455 30 67 16.1 12.9 0.00 0.00 0.00 86 1004.2
20260506093355 31 43 9.7 11.3 0.00 0.00 0.00 86 1004.2
20260506093255 31 95 11.3 16.1 0.00 0.00 0.00 86 1004.2
20260506093155 31 55 16.1 11.3 0.00 0.00 0.00 85 1004.2
20260506093055 31 49 11.3 12.9 0.00 0.00 0.00 85 1004.2
20260506092955 31 69 12.9 9.7 0.00 0.00 0.00 85 1004.2
20260506092855 31 54 9.7 11.3 0.00 0.00 0.00 84 1004.2
20260506092755 31 33 11.3 14.5 0.00 0.00 0.00 84 1004.2
20260506092655 31 43 14.5 12.9 0.00 0.00 0.00 84 1004.2
20260506092555 31 28 12.9 12.9 0.00 0.00 0.00 84 1004.1
20260506092455 31 32 12.9 16.1 0.00 0.00 0.00 84 1004.1
20260506092355 31 33 16.1 12.9 0.00 0.00 0.00 84 1004.1
20260506092255 31 59 12.9 12.9 0.00 0.00 0.00 84 1004.1
20260506092155 31 62 12.9 14.5 0.00 0.00 0.00 84 1004.1
20260506092055 31 34 14.5 17.7 0.00 0.00 0.00 84 1004.1
20260506091955 31 55 17.7 17.7 0.00 0.00 0.00 84 1004.1
20260506091855 31 50 17.7 17.7 0.00 0.00 0.00 84 1004.1
20260506091755 31 44 17.7 16.1 0.00 0.00 0.00 83 1004.1
20260506091655 31 49 16.1 14.5 0.00 0.00 0.00 83 1004.1
20260506091600 31 31 14.5 16.1 0.00 0.00 0.00 83 1004.1
20260506091455 31 58 16.1 14.5 0.00 0.00 0.00 83 1004.1
20260506091355 31 68 14.5 14.5 0.00 0.00 0.00 83 1004.0
20260506091255 31 23 14.5 16.1 0.00 0.00 0.00 83 1004.0
20260506091155 31 75 16.1 14.5 0.00 0.00 0.00 83 1004.0
20260506091055 31 47 14.5 14.5 0.00 0.00 0.00 83 1004.0
20260506090955 31 44 14.5 16.1 0.00 0.00 0.00 82 1004.0
20260506090855 31 44 16.1 17.7 0.00 0.00 0.00 82 1004.0
20260506090755 31 62 17.7 14.5 0.00 0.00 0.00 82 1004.0
20260506090655 31 40 14.5 14.5 0.00 0.00 0.00 82 1004.0
20260506090555 31 62 14.5 11.3 0.00 0.00 0.00 82 1004.0
20260506090455 31 36 11.3 12.9 0.00 0.00 0.00 82 1003.9
20260506090355 31 42 12.9 19.3 0.00 0.00 0.00 82 1003.9
20260506090255 31 45 19.3 16.1 0.00 0.00 0.00 81 1003.9
20260506090155 31 36 16.1 9.7 0.00 0.00 0.00 81 1003.9
20260506090057 31 18 9.7 11.3 0.00 0.00 0.00 81 1003.9
20260506085955 31 5 11.3 9.7 0.00 0.00 0.00 81 1003.9
20260506085855 31 54 9.7 12.9 0.00 0.00 0.00 81 1003.9
20260506085755 31 30 12.9 16.1 0.00 0.00 0.00 81 1003.9
20260506085655 31 49 16.1 12.9 0.00 0.00 0.00 81 1003.9
20260506085555 31 33 12.9 14.5 0.00 0.00 0.00 81 1003.9
20260506085455 31 6 14.5 12.9 0.00 0.00 0.00 81 1003.9
20260506085355 31 36 9.7 12.9 0.00 0.00 0.00 81 1003.9
20260506085255 31 50 12.9 9.7 0.00 0.00 0.00 80 1003.9
20260506085155 31 70 9.7 12.9 0.00 0.00 0.00 80 1003.9
20260506085055 31 50 12.9 12.9 0.00 0.00 0.00 80 1003.9
20260506084955 31 67 12.9 11.3 0.00 0.00 0.00 80 1003.9
20260506084855 31 18 11.3 11.3 0.00 0.00 0.00 80 1003.9
20260506084755 31 47 11.3 14.5 0.00 0.00 0.00 81 1003.9
20260506084655 31 57 14.5 12.9 0.00 0.00 0.00 80 1003.9
20260506084603 31 55 12.9 12.9 0.00 0.00 0.00 80 1003.9
20260506084455 31 12 12.9 14.5 0.00 0.00 0.00 80 1003.9
20260506084355 31 62 14.5 9.7 0.00 0.00 0.00 80 1003.9
20260506084255 31 37 9.7 14.5 0.00 0.00 0.00 81 1003.9
20260506084155 31 40 14.5 12.9 0.00 0.00 0.00 80 1004.0
20260506084055 31 28 12.9 12.9 0.00 0.00 0.00 81 1004.0
20260506083955 31 17 12.9 14.5 0.00 0.00 0.00 81 1004.0
20260506083855 31 50 14.5 16.1 0.00 0.00 0.00 81 1004.0
20260506083755 31 55 16.1 16.1 0.00 0.00 0.00 81 1004.0
20260506083655 31 10 16.1 12.9 0.00 0.00 0.00 80 1004.0
20260506083555 31 46 12.9 17.7 0.00 0.00 0.00 80 1004.0
20260506083455 31 27 17.7 12.9 0.00 0.00 0.00 80 1004.0
20260506083355 32 55 14.5 16.1 0.00 0.00 0.00 79 1004.0
20260506083255 32 21 16.1 12.9 0.00 0.00 0.00 79 1004.0
20260506083155 32 47 12.9 9.7 0.00 0.00 0.00 80 1004.0
20260506083055 32 62 9.7 9.7 0.00 0.00 0.00 81 1004.1
20260506082955 32 83 9.7 12.9 0.00 0.00 0.00 80 1004.1
20260506082855 32 68 12.9 11.3 0.00 0.00 0.00 79 1004.1
20260506082755 32 22 11.3 12.9 0.00 0.00 0.00 80 1004.1
20260506082655 32 28 12.9 12.9 0.00 0.00 0.00 80 1004.1
20260506082555 32 43 12.9 16.1 0.00 0.00 0.00 79 1004.1
20260506082455 32 58 16.1 16.1 0.00 0.00 0.00 79 1004.1
20260506082355 32 19 16.1 17.7 0.00 0.00 0.00 79 1004.1
20260506082255 32 54 17.7 16.1 0.00 0.00 0.00 79 1004.1
20260506082155 32 81 16.1 16.1 0.00 0.00 0.00 79 1004.1
20260506082055 32 28 16.1 14.5 0.00 0.00 0.00 79 1004.1
20260506081955 32 74 14.5 16.1 0.00 0.00 0.00 79 1004.1
20260506081855 32 24 16.1 14.5 0.00 0.00 0.00 78 1004.1
20260506081755 32 36 14.5 12.9 0.00 0.00 0.00 78 1004.1
20260506081655 32 13 12.9 17.7 0.00 0.00 0.00 78 1004.1
20260506081600 32 248 17.7 16.1 0.00 0.00 0.00 78 1004.1
20260506081455 32 51 16.1 14.5 0.00 0.00 0.00 78 1004.1
20260506081355 32 40 14.5 16.1 0.00 0.00 0.00 78 1004.1
20260506081255 32 28 16.1 17.7 0.00 0.00 0.00 78 1004.1
20260506081155 32 44 17.7 19.3 0.00 0.00 0.00 78 1004.1
20260506081055 32 58 19.3 14.5 0.00 0.00 0.00 77 1004.1
20260506080955 32 36 14.5 14.5 0.00 0.00 0.00 77 1004.1
20260506080855 33 51 14.5 16.1 0.00 0.00 0.00 77 1004.1
20260506080756 33 64 16.1 12.9 0.00 0.00 0.00 76 1004.1
20260506080655 33 64 12.9 14.5 0.00 0.00 0.00 77 1004.2
20260506080555 33 42 14.5 11.3 0.00 0.00 0.00 77 1004.2
20260506080455 33 24 11.3 14.5 0.00 0.00 0.00 77 1004.2
20260506080355 33 58 11.3 14.5 0.00 0.00 0.00 77 1004.2
20260506080255 32 18 14.5 11.3 0.00 0.00 0.00 78 1004.2
20260506080155 32 26 11.3 12.9 0.00 0.00 0.00 78 1004.2
20260506073454 33 15 14.5 14.5 0.00 0.00 0.00 75 1004.3
20260506073354 33 71 17.7 14.5 0.00 0.00 0.00 74 1004.3
20260506073254 33 77 14.5 9.7 0.00 0.00 0.00 74 1004.4
20260506073154 33 51 9.7 17.7 0.00 0.00 0.00 75 1004.4
20260506073054 33 73 17.7 12.9 0.00 0.00 0.00 74 1004.4
20260506072954 33 61 12.9 14.5 0.00 0.00 0.00 74 1004.4
20260506072854 33 30 14.5 16.1 0.00 0.00 0.00 74 1004.5
20260506072754 33 53 16.1 14.5 0.00 0.00 0.00 74 1004.5
20260506072654 33 61 14.5 17.7 0.00 0.00 0.00 75 1004.5
20260506072554 33 36 17.7 19.3 0.00 0.00 0.00 75 1004.5
20260506072454 33 84 19.3 14.5 0.00 0.00 0.00 75 1004.6
20260506072354 33 32 12.9 12.9 0.00 0.00 0.00 76 1004.6
20260506072254 33 68 12.9 14.5 0.00 0.00 0.00 75 1004.6
20260506072154 33 66 14.5 16.1 0.00 0.00 0.00 74 1004.6
20260506072054 33 64 16.1 16.1 0.00 0.00 0.00 74 1004.7
20260506071954 33 21 16.1 11.3 0.00 0.00 0.00 75 1004.7
20260506071854 33 39 11.3 14.5 0.00 0.00 0.00 75 1004.7
20260506071754 33 74 14.5 16.1 0.00 0.00 0.00 75 1004.7
20260506071654 33 39 16.1 12.9 0.00 0.00 0.00 76 1004.7
20260506071603 33 66 12.9 17.7 0.00 0.00 0.00 76 1004.7
20260506071454 33 48 17.7 14.5 0.00 0.00 0.00 74 1004.8
20260506071354 33 50 17.7 16.1 0.00 0.00 0.00 73 1004.8
20260506071254 33 19 16.1 11.3 0.00 0.00 0.00 74 1004.8
20260506071154 33 66 11.3 11.3 0.00 0.00 0.00 76 1004.9
20260506071054 33 52 11.3 11.3 0.00 0.00 0.00 77 1004.9
20260506070954 33 4 11.3 16.1 0.00 0.00 0.00 77 1004.9
20260506070854 33 37 16.1 16.1 0.00 0.00 0.00 77 1004.9
20260506070754 33 39 16.1 12.9 0.00 0.00 0.00 77 1005.0
20260506070654 33 36 12.9 17.7 0.00 0.00 0.00 78 1005.0
20260506070554 32 5 17.7 20.9 0.00 0.00 0.00 78 1005.0
20260506070454 32 32 20.9 11.3 0.00 0.00 0.00 78 1005.0
20260506070354 32 38 17.7 14.5 0.00 0.00 0.00 79 1005.1
20260506070254 32 44 14.5 12.9 0.00 0.00 0.00 79 1005.1
20260506070154 32 7 12.9 11.3 0.00 0.00 0.00 80 1005.1
20260506070107 32 14 11.3 17.7 0.00 0.00 0.00 80 1005.2
20260506062454 33 25 17.7 12.9 0.00 0.00 0.00 77 1005.8
20260506062354 33 37 16.1 11.3 0.00 0.00 0.00 77 1005.8
20260506062254 33 50 11.3 11.3 0.00 0.00 0.00 77 1005.8
20260506062154 33 31 11.3 8.0 0.00 0.00 0.00 78 1005.9
20260506062054 33 71 8.0 8.0 0.00 0.00 0.00 79 1005.9
20260506061954 32 29 8.0 14.5 0.00 0.00 0.00 79 1005.9
20260506061854 32 0 14.5 14.5 0.00 0.00 0.00 78 1005.9
20260506061754 32 9 14.5 11.3 0.00 0.00 0.00 78 1005.9
20260506061654 32 29 11.3 14.5 0.00 0.00 0.00 78 1006.0
20260506061558 32 355 14.5 9.7 0.00 0.00 0.00 79 1006.0
20260506061454 32 5 9.7 12.9 0.00 0.00 0.00 80 1006.0
20260506061354 32 12 8.0 11.3 0.00 0.00 0.00 79 1006.0
20260506061254 32 40 11.3 16.1 0.00 0.00 0.00 78 1006.0
20260506061154 32 7 16.1 12.9 0.00 0.00 0.00 78 1006.1
20260506061054 32 33 12.9 9.7 0.00 0.00 0.00 78 1006.1
20260506060954 32 21 9.7 11.3 0.00 0.00 0.00 79 1006.1
20260506060854 32 76 11.3 12.9 0.00 0.00 0.00 78 1006.1
20260506060754 33 51 12.9 11.3 0.00 0.00 0.00 77 1006.1
20260506060654 33 68 11.3 12.9 0.00 0.00 0.00 78 1006.2
20260506060554 33 43 12.9 11.3 0.00 0.00 0.00 77 1006.2
20260506060454 33 66 11.3 8.0 0.00 0.00 0.00 78 1006.2
20260506060354 32 48 12.9 17.7 0.00 0.00 0.00 78 1006.2
20260506060254 32 54 17.7 14.5 0.00 0.00 0.00 79 1006.2
20260506060154 32 13 14.5 9.7 0.00 0.00 0.00 79 1006.3
20260506051353 32 6 14.5 12.9 0.00 0.00 0.00 78 1007.2
20260506051253 33 14 12.9 11.3 0.00 0.00 0.00 77 1007.2
20260506051153 33 14 11.3 11.3 0.00 0.00 0.00 77 1007.2
20260506051053 33 16 11.3 8.0 0.00 0.00 0.00 78 1007.2
20260506050953 33 1 8.0 8.0 0.00 0.00 0.00 78 1007.3
20260506050853 33 51 8.0 9.7 0.00 0.00 0.00 79 1007.3
20260506050753 32 66 9.7 9.7 0.00 0.00 0.00 80 1007.3
20260506050653 32 58 9.7 11.3 0.00 0.00 0.00 79 1007.3
20260506050553 32 57 11.3 11.3 0.00 0.00 0.00 81 1007.3
20260506050453 32 36 11.3 9.7 0.00 0.00 0.00 80 1007.3
20260506050355 32 40 12.9 12.9 0.00 0.00 0.00 80 1007.3
20260506050253 32 109 12.9 11.3 0.00 0.00 0.00 80 1007.4
20260506050153 32 77 11.3 14.5 0.00 0.00 0.00 81 1007.4
20260506045053 31 51 9.7 11.3 0.00 0.00 0.00 84 1007.6
20260506044953 31 72 11.3 12.9 0.00 0.00 0.00 84 1007.6
20260506044853 31 54 12.9 11.3 0.00 0.00 0.00 84 1007.6
20260506044753 31 49 11.3 8.0 0.00 0.00 0.00 83 1007.6
20260506044653 31 27 8.0 6.4 0.00 0.00 0.00 83 1007.6
20260506044600 31 33 6.4 6.4 0.00 0.00 0.00 83 1007.6
20260506044453 31 73 6.4 1.6 0.00 0.00 0.00 83 1007.6
20260506044353 31 54 8.0 6.4 0.00 0.00 0.00 82 1007.6
20260506044255 32 68 6.4 4.8 0.00 0.00 0.00 82 1007.6
20260506044153 32 19 4.8 4.8 0.00 0.00 0.00 81 1007.7
20260506044053 32 30 4.8 3.2 0.00 0.00 0.00 80 1007.7
20260506043953 32 19 3.2 3.2 0.00 0.00 0.00 80 1007.7
20260506043853 32 90 3.2 4.8 0.00 0.00 0.00 80 1007.7
20260506043753 32 110 4.8 1.6 0.00 0.00 0.00 79 1007.7
20260506043653 32 86 1.6 3.2 0.00 0.00 0.00 78 1007.7
20260506043553 32 108 3.2 1.6 0.00 0.00 0.00 77 1007.7
20260506043453 32 78 1.6 3.2 0.00 0.00 0.00 77 1007.7
20260506043353 32 140 0.0 0.0 0.00 0.00 0.00 78 1007.7
20260506043253 32 140 0.0 3.2 0.00 0.00 0.00 78 1007.8
20260506043153 32 139 3.2 1.6 0.00 0.00 0.00 77 1007.8
20260506043053 32 160 1.6 1.6 0.00 0.00 0.00 78 1007.8
20260506042953 32 176 1.6 1.6 0.00 0.00 0.00 78 1007.8
20260506042853 32 169 1.6 3.2 0.00 0.00 0.00 79 1007.8
20260506042753 32 160 3.2 0.0 0.00 0.00 0.00 79 1007.9
20260506042653 32 133 0.0 1.6 0.00 0.00 0.00 79 1007.9
20260506042553 32 132 1.6 1.6 0.00 0.00 0.00 78 1007.9
20260506042453 32 130 1.6 6.4 0.00 0.00 0.00 78 1007.9
20260506042353 32 179 4.8 6.4 0.00 0.00 0.00 78 1007.9
20260506042253 32 177 6.4 8.0 0.00 0.00 0.00 78 1007.9
20260506042153 32 175 8.0 3.2 0.00 0.00 0.00 78 1008.0
20260506042053 32 159 3.2 1.6 0.00 0.00 0.00 78 1008.0
20260506041953 32 165 1.6 3.2 0.00 0.00 0.00 78 1008.0
20260506041853 32 157 3.2 6.4 0.00 0.00 0.00 77 1008.0
20260506041753 32 161 6.4 4.8 0.00 0.00 0.00 77 1008.0
20260506041653 32 166 4.8 4.8 0.00 0.00 0.00 78 1008.0
20260506041554 32 172 4.8 6.4 0.00 0.00 0.00 78 1008.0
20260506041453 32 169 6.4 4.8 0.00 0.00 0.00 77 1008.0
20260506041353 32 146 6.4 8.0 0.00 0.00 0.00 76 1008.0
20260506041253 32 140 8.0 6.4 0.00 0.00 0.00 77 1008.0
20260506041153 32 199 6.4 11.3 0.00 0.00 0.00 76 1008.0
20260506041053 33 130 11.3 8.0 0.00 0.00 0.00 75 1008.0
20260506040953 33 111 8.0 8.0 0.00 0.00 0.00 74 1008.0
20260506040853 33 86 8.0 8.0 0.00 0.00 0.00 74 1008.1
20260506040753 33 127 8.0 0.0 0.00 0.00 0.00 74 1008.1
20260506040653 33 106 0.0 0.0 0.00 0.00 0.00 75 1008.1
20260506040553 33 197 0.0 1.6 0.00 0.00 0.00 74 1008.1
20260506040453 32 105 1.6 8.0 0.00 0.00 0.00 74 1008.1
20260506040353 33 90 6.4 8.0 0.00 0.00 0.00 74 1008.1
20260506040253 33 74 8.0 8.0 0.00 0.00 0.00 74 1008.1
20260506040153 32 91 8.0 8.0 0.00 0.00 0.00 75 1008.2
20260506040057 32 127 8.0 4.8 0.00 0.00 0.00 75 1008.2
20260506035953 32 85 4.8 4.8 0.00 0.00 0.00 75 1008.2
20260506035853 32 134 4.8 9.7 0.00 0.00 0.00 75 1008.2
20260506035753 32 121 9.7 6.4 0.00 0.00 0.00 75 1008.2
20260506035653 32 139 6.4 8.0 0.00 0.00 0.00 75 1008.2
20260506035553 32 142 8.0 11.3 0.00 0.00 0.00 75 1008.2
20260506035453 32 121 11.3 6.4 0.00 0.00 0.00 75 1008.2
20260506035353 32 125 11.3 12.9 0.00 0.00 0.00 76 1008.2
20260506035253 32 122 12.9 6.4 0.00 0.00 0.00 77 1008.2
20260506035153 32 133 6.4 6.4 0.00 0.00 0.00 78 1008.2
20260506035053 32 112 6.4 1.6 0.00 0.00 0.00 78 1008.2
20260506034953 32 131 1.6 8.0 0.00 0.00 0.00 76 1008.2
20260506034853 32 141 8.0 4.8 0.00 0.00 0.00 76 1008.2
20260506034753 32 91 4.8 6.4 0.00 0.00 0.00 77 1008.2
20260506034653 32 88 6.4 8.0 0.00 0.00 0.00 76 1008.2
20260506034554 32 119 8.0 8.0 0.00 0.00 0.00 77 1008.3
20260506034453 32 108 8.0 4.8 0.00 0.00 0.00 77 1008.3
20260506034353 32 130 8.0 9.7 0.00 0.00 0.00 76 1008.3
20260506034253 32 135 9.7 8.0 0.00 0.00 0.00 76 1008.3
20260506034153 32 134 8.0 6.4 0.00 0.00 0.00 75 1008.3
20260506034052 32 120 6.4 0.0 0.00 0.00 0.00 77 1008.3
20260506033953 32 113 0.0 0.0 0.00 0.00 0.00 76 1008.3
20260506033853 32 113 0.0 0.0 0.00 0.00 0.00 76 1008.3
20260506033753 32 113 0.0 1.6 0.00 0.00 0.00 76 1008.3
20260506033655 32 123 1.6 4.8 0.00 0.00 0.00 77 1008.3
20260506033553 32 112 4.8 6.4 0.00 0.00 0.00 76 1008.3
20260506033452 32 116 6.4 4.8 0.00 0.00 0.00 77 1008.3
20260506033352 32 119 4.8 6.4 0.00 0.00 0.00 78 1008.3
20260506033252 32 163 6.4 8.0 0.00 0.00 0.00 77 1008.3
20260506033153 32 102 8.0 4.8 0.00 0.00 0.00 78 1008.3
20260506033052 32 106 4.8 4.8 0.00 0.00 0.00 78 1008.3
20260506032952 32 84 4.8 0.0 0.00 0.00 0.00 77 1008.3
20260506032853 32 148 0.0 4.8 0.00 0.00 0.00 78 1008.3
20260506032752 32 128 4.8 4.8 0.00 0.00 0.00 77 1008.3
20260506032652 32 168 4.8 3.2 0.00 0.00 0.00 77 1008.3
20260506032552 32 170 3.2 8.0 0.00 0.00 0.00 77 1008.3
20260506032453 32 103 8.0 9.7 0.00 0.00 0.00 77 1008.3
20260506032352 32 124 9.7 9.7 0.00 0.00 0.00 77 1008.3
20260506032252 32 124 9.7 1.6 0.00 0.00 0.00 77 1008.3
20260506032152 32 76 1.6 6.4 0.00 0.00 0.00 77 1008.3
20260506032052 32 40 6.4 6.4 0.00 0.00 0.00 76 1008.3
20260506031952 32 52 6.4 11.3 0.00 0.00 0.00 76 1008.3
20260506031853 32 90 11.3 8.0 0.00 0.00 0.00 76 1008.3
20260506031752 32 86 8.0 8.0 0.00 0.00 0.00 77 1008.3
20260506031652 32 90 8.0 8.0 0.00 0.00 0.00 79 1008.3
20260506031603 32 109 8.0 9.7 0.00 0.00 0.00 79 1008.4
20260506031452 32 115 9.7 8.0 0.00 0.00 0.00 78 1008.3
20260506031352 32 123 9.7 9.7 0.00 0.00 0.00 77 1008.3
20260506031252 32 135 9.7 11.3 0.00 0.00 0.00 77 1008.4
20260506031152 32 135 11.3 11.3 0.00 0.00 0.00 78 1008.4
20260506031052 32 79 11.3 11.3 0.00 0.00 0.00 78 1008.4
20260506030952 32 104 11.3 8.0 0.00 0.00 0.00 80 1008.4
20260506030852 32 80 8.0 9.7 0.00 0.00 0.00 79 1008.4
20260506030752 32 97 9.7 9.7 0.00 0.00 0.00 79 1008.4
20260506030652 32 122 9.7 9.7 0.00 0.00 0.00 79 1008.4
20260506030552 32 115 9.7 9.7 0.00 0.00 0.00 80 1008.5
20260506030452 31 104 9.7 4.8 0.00 0.00 0.00 80 1008.5
20260506030352 31 144 9.7 8.0 0.00 0.00 0.00 80 1008.5
20260506030252 31 139 8.0 6.4 0.00 0.00 0.00 80 1008.5
20260506030152 31 115 6.4 11.3 0.00 0.00 0.00 80 1008.5
20260506030100 31 110 11.3 6.4 0.00 0.00 0.00 80 1008.5
20260506025952 31 115 6.4 1.6 0.00 0.00 0.00 82 1008.6
20260506025852 31 99 1.6 3.2 0.00 0.00 0.00 81 1008.6
20260506025752 31 101 3.2 1.6 0.00 0.00 0.00 82 1008.6
20260506025652 31 113 1.6 8.0 0.00 0.00 0.00 81 1008.6
20260506025552 31 96 8.0 8.0 0.00 0.00 0.00 81 1008.6
20260506025452 31 105 8.0 8.0 0.00 0.00 0.00 82 1008.6
20260506025352 31 109 4.8 6.4 0.00 0.00 0.00 82 1008.6
20260506025252 31 128 6.4 4.8 0.00 0.00 0.00 82 1008.6
20260506025152 31 119 4.8 8.0 0.00 0.00 0.00 82 1008.6
20260506025052 31 113 8.0 9.7 0.00 0.00 0.00 82 1008.6
20260506024952 31 105 9.7 8.0 0.00 0.00 0.00 82 1008.6
20260506024852 31 117 8.0 11.3 0.00 0.00 0.00 82 1008.6
20260506024752 31 118 11.3 11.3 0.00 0.00 0.00 82 1008.6
20260506024652 31 96 11.3 4.8 0.00 0.00 0.00 82 1008.6
20260506024609 31 144 4.8 6.4 0.00 0.00 0.00 83 1008.6
20260506024452 31 77 6.4 6.4 0.00 0.00 0.00 82 1008.6
20260506024352 31 66 6.4 8.0 0.00 0.00 0.00 82 1008.6
20260506024252 31 67 8.0 6.4 0.00 0.00 0.00 81 1008.6
20260506024152 31 72 6.4 8.0 0.00 0.00 0.00 82 1008.7
20260506024052 31 136 8.0 9.7 0.00 0.00 0.00 84 1008.7
20260506023952 31 120 9.7 4.8 0.00 0.00 0.00 84 1008.7
20260506023852 31 125 4.8 8.0 0.00 0.00 0.00 85 1008.7
20260506023752 31 152 8.0 9.7 0.00 0.00 0.00 86 1008.7
20260506023652 31 95 9.7 6.4 0.00 0.00 0.00 86 1008.7
20260506023552 30 93 6.4 8.0 0.00 0.00 0.00 86 1008.7
20260506023452 31 113 8.0 4.8 0.00 0.00 0.00 86 1008.7
20260506023352 31 140 9.7 3.2 0.00 0.00 0.00 87 1008.7
20260506023252 30 153 3.2 0.0 0.00 0.00 0.00 88 1008.7
20260506023152 30 177 0.0 3.2 0.00 0.00 0.00 87 1008.7
20260506023101 30 197 3.2 6.4 0.00 0.00 0.00 87 1008.7
20260506022952 30 190 6.4 3.2 0.00 0.00 0.00 87 1008.7
20260506022855 30 201 3.2 3.2 0.00 0.00 0.00 87 1008.7
20260506022752 30 205 3.2 4.8 0.00 0.00 0.00 88 1008.7
20260506022652 30 154 4.8 8.0 0.00 0.00 0.00 87 1008.7
20260506022552 30 153 8.0 4.8 0.00 0.00 0.00 88 1008.7
20260506022452 30 159 4.8 4.8 0.00 0.00 0.00 88 1008.7
20260506022352 30 181 3.2 3.2 0.00 0.00 0.00 88 1008.7
20260506022252 30 160 3.2 6.4 0.00 0.00 0.00 88 1008.7
20260506022152 30 178 6.4 6.4 0.00 0.00 0.00 87 1008.7
20260506022052 30 167 6.4 6.4 0.00 0.00 0.00 87 1008.7
20260506021952 30 182 6.4 3.2 0.00 0.00 0.00 87 1008.7
20260506021852 30 164 3.2 8.0 0.00 0.00 0.00 88 1008.7
20260506021753 30 164 8.0 9.7 0.00 0.00 0.00 87 1008.7
20260506021652 31 160 9.7 9.7 0.00 0.00 0.00 87 1008.7
20260506021552 30 162 9.7 9.7 0.00 0.00 0.00 88 1008.7
20260506021452 30 152 9.7 4.8 0.00 0.00 0.00 88 1008.7
20260506021352 30 174 4.8 0.0 0.00 0.00 0.00 88 1008.7
20260506021252 30 314 0.0 0.0 0.00 0.00 0.00 88 1008.7
20260506021152 30 322 0.0 4.8 0.00 0.00 0.00 88 1008.7
20260506021052 30 162 4.8 6.4 0.00 0.00 0.00 88 1008.7
20260506020952 30 148 6.4 8.0 0.00 0.00 0.00 88 1008.7
20260506020852 30 171 8.0 8.0 0.00 0.00 0.00 88 1008.7
20260506020752 30 148 8.0 9.7 0.00 0.00 0.00 87 1008.7
20260506020652 30 162 9.7 3.2 0.00 0.00 0.00 87 1008.7
20260506020552 30 157 3.2 1.6 0.00 0.00 0.00 88 1008.7
20260506020452 30 111 1.6 3.2 0.00 0.00 0.00 88 1008.7
20260506020352 30 103 3.2 8.0 0.00 0.00 0.00 88 1008.7
20260506020252 30 85 8.0 3.2 0.00 0.00 0.00 88 1008.7
20260506020152 30 105 3.2 8.0 0.00 0.00 0.00 88 1008.7
20260506020054 30 129 8.0 4.8 0.00 0.00 0.00 88 1008.7
20260506015952 30 136 4.8 3.2 0.00 0.00 0.00 88 1008.7
20260506015852 30 128 3.2 3.2 0.00 0.00 0.00 88 1008.7
20260506015752 30 125 3.2 3.2 0.00 0.00 0.00 89 1008.7
20260506015652 30 105 3.2 6.4 0.00 0.00 0.00 89 1008.7
20260506015552 30 133 6.4 6.4 0.00 0.00 0.00 89 1008.7
20260506015452 30 135 6.4 4.8 0.00 0.00 0.00 90 1008.7
20260506015352 30 188 3.2 1.6 0.00 0.00 0.00 89 1008.7
20260506015252 30 186 1.6 1.6 0.00 0.00 0.00 89 1008.7
20260506015152 30 127 1.6 4.8 0.00 0.00 0.00 89 1008.7
20260506015052 30 145 4.8 4.8 0.00 0.00 0.00 89 1008.7
20260506014952 30 148 4.8 3.2 0.00 0.00 0.00 89 1008.7
20260506014852 30 144 3.2 6.4 0.00 0.00 0.00 89 1008.7
20260506014752 30 121 6.4 4.8 0.00 0.00 0.00 89 1008.7
20260506014652 30 142 4.8 3.2 0.00 0.00 0.00 89 1008.7
20260506014554 30 132 3.2 3.2 0.00 0.00 0.00 90 1008.7
20260506014452 30 137 3.2 3.2 0.00 0.00 0.00 90 1008.7
20260506014352 30 166 6.4 4.8 0.00 0.00 0.00 90 1008.7
20260506014252 30 135 4.8 4.8 0.00 0.00 0.00 91 1008.7
20260506014152 30 115 4.8 3.2 0.00 0.00 0.00 90 1008.7
20260506014052 30 131 3.2 4.8 0.00 0.00 0.00 90 1008.7
20260506013952 30 140 4.8 3.2 0.00 0.00 0.00 90 1008.6
20260506013852 30 136 3.2 0.0 0.00 0.00 0.00 91 1008.6
20260506013752 29 148 0.0 1.6 0.00 0.00 0.00 92 1008.6
20260506013652 29 131 1.6 3.2 0.00 0.00 0.00 92 1008.6
20260506013605 29 120 3.2 4.8 0.00 0.00 0.00 92 1008.6
20260506013452 29 135 4.8 6.4 0.00 0.00 0.00 92 1008.6
20260506013357 29 179 1.6 4.8 0.00 0.00 0.00 93 1008.5
20260506013252 29 178 4.8 1.6 0.00 0.00 0.00 93 1008.5
20260506013152 29 189 1.6 3.2 0.00 0.00 0.00 93 1008.5
20260506013057 29 168 3.2 6.4 0.00 0.00 0.00 94 1008.5
20260506012952 29 157 6.4 6.4 0.00 0.00 0.00 93 1008.5
20260506012852 28 147 6.4 6.4 0.00 0.00 0.00 93 1008.5
20260506012752 28 148 6.4 6.4 0.00 0.00 0.00 93 1008.5
20260506012652 28 157 6.4 4.8 0.00 0.00 0.00 93 1008.5
20260506012552 28 168 4.8 6.4 0.00 0.00 0.00 93 1008.4
20260506012452 28 155 6.4 3.2 0.00 0.00 0.00 93 1008.4
20260506012352 28 164 6.4 6.4 0.00 0.00 0.00 94 1008.4
20260506012252 28 163 6.4 6.4 0.00 0.00 0.00 93 1008.4
20260506012152 28 151 6.4 6.4 0.00 0.00 0.00 94 1008.4
20260506012052 28 149 6.4 6.4 0.00 0.00 0.00 94 1008.4
20260506011952 28 146 6.4 6.4 0.00 0.00 0.00 93 1008.4
20260506011851 28 148 6.4 6.4 0.00 0.00 0.00 93 1008.4
20260506011752 29 152 6.4 3.2 0.00 0.00 0.00 93 1008.4
20260506011652 29 149 3.2 1.6 0.00 0.00 0.00 95 1008.4
20260506011552 29 126 1.6 1.6 0.00 0.00 0.00 95 1008.4
20260506011452 28 116 1.6 0.0 0.00 0.00 0.00 96 1008.4
20260506011351 28 135 3.2 1.6 0.00 0.00 0.00 95 1008.4
20260506011251 28 137 1.6 1.6 0.00 0.00 0.00 96 1008.4
20260506011152 28 95 1.6 3.2 0.00 0.00 0.00 96 1008.4
20260506011057 28 96 3.2 1.6 0.00 0.00 0.00 96 1008.4
20260506010952 28 81 1.6 0.0 0.00 0.00 0.00 97 1008.3
20260506010851 28 89 0.0 0.0 0.00 0.00 0.00 97 1008.3
20260506010752 28 142 0.0 0.0 0.00 0.00 0.00 97 1008.3
20260506010651 28 142 0.0 0.0 0.00 0.00 0.00 97 1008.3
20260506010551 28 91 0.0 0.0 0.00 0.00 0.00 97 1008.3
20260506010451 28 104 0.0 1.6 0.00 0.00 0.00 98 1008.3
20260506010351 28 132 0.0 0.0 0.00 0.00 0.00 98 1008.3
20260506010251 28 113 0.0 0.0 0.00 0.00 0.00 98 1008.3
20260506010151 28 104 0.0 0.0 0.00 0.00 0.00 99 1008.3
20260506010053 28 80 0.0 0.0 0.00 0.00 0.00 99 1008.3
20260506005951 28 98 0.0 0.0 0.00 0.00 0.00 99 1008.3
20260506005851 28 104 0.0 3.2 0.00 0.00 0.00 99 1008.3
20260506005751 28 104 3.2 1.6 0.00 0.00 0.00 99 1008.2
20260506005651 28 120 1.6 3.2 0.00 0.00 0.00 99 1008.2
20260506005551 28 101 3.2 1.6 0.00 0.00 0.00 99 1008.2
20260506005451 28 148 1.6 0.0 0.00 0.00 0.00 99 1008.2
20260506005351 28 160 0.0 0.0 0.00 0.00 0.00 99 1008.2
20260506005251 28 160 0.0 0.0 0.00 0.00 0.00 99 1008.2
20260506005151 28 160 0.0 0.0 0.00 0.00 0.00 99 1008.2
20260506005051 28 160 0.0 0.0 0.00 0.00 0.00 99 1008.2
20260506004951 28 160 0.0 0.0 0.00 0.00 0.00 99 1008.2
20260506004851 27 160 0.0 0.0 0.00 0.00 0.00 99 1008.2
20260506004751 27 119 0.0 0.0 0.00 0.00 0.00 99 1008.2
20260506004651 27 119 0.0 0.0 0.00 0.00 0.00 99 1008.1
20260506004603 27 119 0.0 0.0 0.00 0.00 0.00 99 1008.1
20260506004451 27 119 0.0 0.0 0.00 0.00 0.00 99 1008.1
20260506004351 27 118 0.0 0.0 0.00 0.00 0.00 99 1008.1
20260506004251 27 118 0.0 0.0 0.00 0.00 0.00 99 1008.1
20260506004151 27 118 0.0 0.0 0.00 0.00 0.00 99 1008.1
20260506004051 27 118 0.0 0.0 0.00 0.00 0.00 99 1008.1
20260506003951 27 118 0.0 0.0 0.00 0.00 0.00 99 1008.1
20260506003851 27 118 0.0 0.0 0.00 0.00 0.00 99 1008.1
20260506003751 27 118 0.0 0.0 0.00 0.00 0.00 99 1008.1
20260506003651 27 118 0.0 0.0 0.00 0.00 0.00 99 1008.0
20260506003551 27 118 0.0 0.0 0.00 0.00 0.00 99 1008.0
20260506003451 27 118 0.0 0.0 0.00 0.00 0.00 99 1008.0
20260506003351 27 118 0.0 0.0 0.00 0.00 0.00 99 1008.0
20260506003251 27 118 0.0 0.0 0.00 0.00 0.00 99 1008.0
20260506003151 27 118 0.0 0.0 0.00 0.00 0.00 99 1008.0
20260506003105 27 355 0.0 0.0 0.00 0.00 0.00 99 1008.0
20260506002951 27 355 0.0 0.0 0.00 0.00 0.00 99 1008.0
20260506002851 26 355 0.0 0.0 0.00 0.00 0.00 99 1008.0
20260506002751 26 355 0.0 0.0 0.00 0.00 0.00 99 1008.0
20260506002651 26 355 0.0 0.0 0.00 0.00 0.00 99 1008.0
20260506002552 26 355 0.0 0.0 0.00 0.00 0.00 99 1008.0
20260506002451 26 355 0.0 0.0 0.00 0.00 0.00 99 1008.0
20260506002351 26 355 0.0 0.0 0.00 0.00 0.00 99 1007.9
20260506002251 26 355 0.0 0.0 0.00 0.00 0.00 99 1007.9
20260506002151 26 355 0.0 0.0 0.00 0.00 0.00 99 1007.9
20260506002051 26 355 0.0 0.0 0.00 0.00 0.00 99 1007.9
20260506001951 26 355 0.0 0.0 0.00 0.00 0.00 99 1007.9
20260506001851 26 355 0.0 0.0 0.00 0.00 0.00 99 1007.9
20260506001751 26 355 0.0 0.0 0.00 0.00 0.00 99 1007.9
20260506001651 26 355 0.0 0.0 0.00 0.00 0.00 99 1007.9
20260506001558 26 355 0.0 0.0 0.00 0.00 0.00 99 1007.8
20260506001451 26 239 0.0 0.0 0.00 0.00 0.00 99 1007.8
20260506001351 26 239 0.0 0.0 0.00 0.00 0.00 99 1007.8
20260506001251 26 203 0.0 0.0 0.00 0.00 0.00 99 1007.8
20260506001151 26 203 0.0 0.0 0.00 0.00 0.00 99 1007.8
20260506001051 26 203 0.0 0.0 0.00 0.00 0.00 99 1007.8
20260506000951 26 203 0.0 0.0 0.00 0.00 0.00 99 1007.8
20260506000851 26 203 0.0 0.0 0.00 0.00 0.00 99 1007.7
20260506000751 26 203 0.0 0.0 0.00 0.00 0.00 99 1007.7
20260506000651 26 203 0.0 0.0 0.00 0.00 0.00 99 1007.7
20260506000551 26 203 0.0 0.0 0.00 0.00 0.00 99 1007.7
20260506000451 26 203 0.0 0.0 0.00 0.00 0.00 99 1007.7
20260506000351 26 203 0.0 0.0 0.00 0.00 0.00 99 1007.7
20260506000251 26 203 0.0 0.0 0.00 0.00 0.00 99 1007.7
20260506000151 25 203 0.0 0.0 0.00 0.00 0.00 99 1007.7
20260506000053 25 203 0.0 0.0 0.00 0.00 0.00 99 1007.7
20260505235951 25 203 0.0 0.0 0.00 0.00 0.00 99 1007.7
20260505235851 25 203 0.0 0.0 0.00 0.00 0.00 99 1007.7
20260505235751 25 203 0.0 0.0 0.00 0.00 0.00 99 1007.7
20260505235651 25 203 0.0 0.0 0.00 0.00 0.00 99 1007.7
20260505235551 25 203 0.0 0.0 0.00 0.00 0.00 99 1007.7
20260505235451 25 203 0.0 0.0 0.00 0.00 0.00 99 1007.7
20260505235351 25 203 0.0 0.0 0.00 0.00 0.00 99 1007.7
20260505235251 25 203 0.0 0.0 0.00 0.00 0.00 99 1007.7
20260505235151 25 203 0.0 0.0 0.00 0.00 0.00 99 1007.7
20260505235051 25 203 0.0 0.0 0.00 0.00 0.00 99 1007.7
20260505234951 25 203 0.0 0.0 0.00 0.00 0.00 99 1007.7
20260505234851 25 203 0.0 0.0 0.00 0.00 0.00 99 1007.7
20260505234751 25 203 0.0 0.0 0.00 0.00 0.00 99 1007.7
20260505234651 25 203 0.0 0.0 0.00 0.00 0.00 99 1007.7
20260505234559 25 203 0.0 0.0 0.00 0.00 0.00 99 1007.7
20260505234451 25 203 0.0 0.0 0.00 0.00 0.00 99 1007.6
20260505234351 25 203 0.0 0.0 0.00 0.00 0.00 99 1007.6
20260505234251 25 203 0.0 0.0 0.00 0.00 0.00 99 1007.6
20260505234151 25 203 0.0 0.0 0.00 0.00 0.00 99 1007.6
20260505234051 25 203 0.0 0.0 0.00 0.00 0.00 99 1007.6
20260505233951 25 203 0.0 0.0 0.00 0.00 0.00 99 1007.6
20260505233851 25 203 0.0 0.0 0.00 0.00 0.00 99 1007.6
20260505233751 25 201 0.0 0.0 0.00 0.00 0.00 99 1007.6
20260505233651 25 200 0.0 0.0 0.00 0.00 0.00 99 1007.5
20260505233551 25 200 0.0 0.0 0.00 0.00 0.00 99 1007.5
20260505233451 25 200 0.0 0.0 0.00 0.00 0.00 99 1007.5
20260505233351 25 201 0.0 0.0 0.00 0.00 0.00 99 1007.5
20260505233251 25 201 0.0 0.0 0.00 0.00 0.00 99 1007.5
20260505233151 25 201 0.0 0.0 0.00 0.00 0.00 99 1007.5
20260505233051 25 201 0.0 0.0 0.00 0.00 0.00 99 1007.5
20260505232951 25 201 0.0 0.0 0.00 0.00 0.00 99 1007.4
20260505232851 25 201 0.0 0.0 0.00 0.00 0.00 99 1007.4
20260505232751 25 201 0.0 0.0 0.00 0.00 0.00 99 1007.4
20260505232651 25 201 0.0 0.0 0.00 0.00 0.00 99 1007.4
20260505232551 25 202 0.0 0.0 0.00 0.00 0.00 99 1007.4
20260505232451 25 203 0.0 0.0 0.00 0.00 0.00 99 1007.4
20260505232351 25 203 0.0 0.0 0.00 0.00 0.00 99 1007.4
20260505232251 25 203 0.0 0.0 0.00 0.00 0.00 99 1007.4
20260505232151 25 203 0.0 0.0 0.00 0.00 0.00 99 1007.4
20260505232051 25 203 0.0 0.0 0.00 0.00 0.00 99 1007.4
20260505231951 25 203 0.0 0.0 0.00 0.00 0.00 99 1007.4
20260505231851 25 203 0.0 0.0 0.00 0.00 0.00 99 1007.4
20260505231751 25 203 0.0 0.0 0.00 0.00 0.00 99 1007.4
20260505231651 25 203 0.0 0.0 0.00 0.00 0.00 99 1007.4
20260505231551 25 203 0.0 0.0 0.00 0.00 0.00 99 1007.4
20260505231451 25 197 0.0 0.0 0.00 0.00 0.00 99 1007.4
20260505231350 25 172 0.0 0.0 0.00 0.00 0.00 99 1007.4
20260505231251 25 168 0.0 0.0 0.00 0.00 0.00 99 1007.4
20260505231151 25 168 0.0 0.0 0.00 0.00 0.00 99 1007.4
20260505231051 25 168 0.0 0.0 0.00 0.00 0.00 99 1007.4
20260505230951 25 168 0.0 0.0 0.00 0.00 0.00 99 1007.3
20260505230851 25 168 0.0 0.0 0.00 0.00 0.00 99 1007.3
20260505230751 25 168 0.0 0.0 0.00 0.00 0.00 99 1007.3
20260505230651 25 168 0.0 0.0 0.00 0.00 0.00 99 1007.3
20260505230550 25 168 0.0 0.0 0.00 0.00 0.00 99 1007.3
20260505230451 25 168 0.0 0.0 0.00 0.00 0.00 99 1007.3
20260505230351 25 168 0.0 0.0 0.00 0.00 0.00 99 1007.3
20260505230250 25 168 0.0 0.0 0.00 0.00 0.00 99 1007.3
20260505230150 25 168 0.0 0.0 0.00 0.00 0.00 99 1007.3
20260505230056 25 168 0.0 0.0 0.00 0.00 0.00 99 1007.3
20260505225950 25 168 0.0 0.0 0.00 0.00 0.00 99 1007.2
20260505225850 25 168 0.0 0.0 0.00 0.00 0.00 99 1007.2
20260505225750 25 168 0.0 0.0 0.00 0.00 0.00 99 1007.2
20260505225650 25 168 0.0 0.0 0.00 0.00 0.00 99 1007.2
20260505225550 25 168 0.0 0.0 0.00 0.00 0.00 99 1007.2
20260505225450 25 168 0.0 0.0 0.00 0.00 0.00 99 1007.2
20260505225350 25 168 0.0 0.0 0.00 0.00 0.00 99 1007.2
20260505225250 25 168 0.0 0.0 0.00 0.00 0.00 99 1007.2
20260505225150 25 168 0.0 0.0 0.00 0.00 0.00 99 1007.2
20260505225050 25 168 0.0 0.0 0.00 0.00 0.00 99 1007.2
20260505224950 25 168 0.0 0.0 0.00 0.00 0.00 99 1007.2
20260505224850 25 168 0.0 0.0 0.00 0.00 0.00 99 1007.1
20260505224750 25 168 0.0 0.0 0.00 0.00 0.00 99 1007.1
20260505224650 25 168 0.0 0.0 0.00 0.00 0.00 99 1007.1
20260505224550 25 168 0.0 0.0 0.00 0.00 0.00 99 1007.1
20260505224450 25 168 0.0 1.6 0.00 0.00 0.00 99 1007.1
20260505224350 25 168 0.0 0.0 0.00 0.00 0.00 99 1007.1
20260505224250 25 168 0.0 0.0 0.00 0.00 0.00 99 1007.1
20260505224150 25 168 0.0 0.0 0.00 0.00 0.00 99 1007.0
20260505224050 25 168 0.0 1.6 0.00 0.00 0.00 99 1007.0
20260505223950 25 168 1.6 0.0 0.00 0.00 0.00 99 1007.0
20260505223850 25 168 0.0 1.6 0.00 0.00 0.00 99 1007.0
20260505223750 25 168 1.6 0.0 0.00 0.00 0.00 99 1007.0
20260505223650 25 168 0.0 0.0 0.00 0.00 0.00 99 1007.0
20260505223550 25 168 0.0 1.6 0.00 0.00 0.00 99 1007.0
20260505223450 25 168 1.6 1.6 0.00 0.00 0.00 99 1007.0
20260505223350 25 168 1.6 1.6 0.00 0.00 0.00 99 1007.0
20260505223250 25 168 1.6 3.2 0.00 0.00 0.00 99 1007.1
20260505223150 25 201 3.2 1.6 0.00 0.00 0.00 99 1007.1
20260505223052 25 201 1.6 0.0 0.00 0.00 0.00 99 1007.1
20260505222950 25 254 0.0 1.6 0.00 0.00 0.00 99 1007.1
20260505222850 25 254 1.6 1.6 0.00 0.00 0.00 99 1007.1
20260505222750 25 254 1.6 1.6 0.00 0.00 0.00 99 1007.1
20260505222650 25 255 1.6 1.6 0.00 0.00 0.00 99 1007.1
20260505222550 25 256 1.6 3.2 0.00 0.00 0.00 99 1007.2
20260505222450 25 256 3.2 0.0 0.00 0.00 0.00 99 1007.2
20260505222350 25 256 3.2 3.2 0.00 0.00 0.00 99 1007.2
20260505222250 25 256 3.2 3.2 0.00 0.00 0.00 99 1007.2
20260505222150 25 256 3.2 3.2 0.00 0.00 0.00 99 1007.2
20260505222050 25 256 3.2 3.2 0.00 0.00 0.00 99 1007.1
20260505221950 25 232 3.2 1.6 0.00 0.00 0.00 99 1007.1
20260505221850 25 231 1.6 0.0 0.00 0.00 0.00 99 1007.1
20260505221750 25 230 0.0 0.0 0.00 0.00 0.00 99 1007.1
20260505221650 25 230 0.0 0.0 0.00 0.00 0.00 99 1007.1
20260505221552 25 230 0.0 0.0 0.00 0.00 0.00 99 1007.1
20260505221450 25 230 0.0 0.0 0.00 0.00 0.00 99 1007.0
20260505221350 25 230 0.0 0.0 0.00 0.00 0.00 99 1007.0
20260505221250 25 230 0.0 0.0 0.00 0.00 0.00 99 1007.0
20260505221150 25 230 0.0 0.0 0.00 0.00 0.00 99 1007.0
20260505221050 25 230 0.0 0.0 0.00 0.00 0.00 99 1007.0
20260505220950 25 230 0.0 0.0 0.00 0.00 0.00 99 1007.0
20260505220850 25 230 0.0 0.0 0.00 0.00 0.00 99 1007.0
20260505220750 25 230 0.0 0.0 0.00 0.00 0.00 99 1007.0
20260505220650 25 230 0.0 0.0 0.00 0.00 0.00 99 1006.9
20260505220550 25 230 0.0 0.0 0.00 0.00 0.00 99 1006.9
20260505220450 25 230 0.0 0.0 0.00 0.00 0.00 99 1006.9
20260505220350 25 230 0.0 0.0 0.00 0.00 0.00 99 1006.9
20260505220250 25 230 0.0 0.0 0.00 0.00 0.00 99 1006.9
20260505220150 25 230 0.0 0.0 0.00 0.00 0.00 99 1006.9
20260505220050 25 230 0.0 0.0 0.00 0.00 0.00 99 1006.9
20260505215950 25 230 0.0 0.0 0.00 0.00 0.00 99 1006.9
20260505215850 25 230 0.0 0.0 0.00 0.00 0.00 99 1006.9
20260505215750 25 230 0.0 0.0 0.00 0.00 0.00 99 1006.9
20260505215650 25 230 0.0 0.0 0.00 0.00 0.00 99 1006.9
20260505215550 25 230 0.0 0.0 0.00 0.00 0.00 99 1006.9
20260505215450 25 230 0.0 0.0 0.00 0.00 0.00 99 1006.9
20260505215350 25 230 0.0 0.0 0.00 0.00 0.00 99 1006.9
20260505215250 25 230 0.0 0.0 0.00 0.00 0.00 99 1006.9
20260505215150 25 230 0.0 0.0 0.00 0.00 0.00 99 1006.9
20260505215050 25 230 0.0 0.0 0.00 0.00 0.00 99 1006.8
20260505214950 25 230 0.0 0.0 0.00 0.00 0.00 99 1006.8
20260505214850 25 230 0.0 0.0 0.00 0.00 0.00 99 1006.8
20260505214750 25 230 0.0 0.0 0.00 0.00 0.00 99 1006.8
20260505214650 25 230 0.0 0.0 0.00 0.00 0.00 99 1006.8
20260505214630 25 230 0.0 0.0 0.00 0.00 0.00 99 1006.8
20260505214450 25 230 0.0 0.0 0.00 0.00 0.00 99 1006.8
20260505214350 25 230 0.0 0.0 0.00 0.00 0.00 99 1006.8
20260505214250 25 230 0.0 0.0 0.00 0.00 0.00 99 1006.7
20260505214150 25 230 0.0 0.0 0.00 0.00 0.00 99 1006.7
20260505214050 25 230 0.0 0.0 0.00 0.00 0.00 99 1006.7
20260505213950 25 230 0.0 0.0 0.00 0.00 0.00 99 1006.7
20260505213850 25 230 0.0 0.0 0.00 0.00 0.00 99 1006.7
20260505213750 25 230 0.0 0.0 0.00 0.00 0.00 99 1006.7
20260505213650 25 230 0.0 0.0 0.00 0.00 0.00 99 1006.7
20260505213550 25 230 0.0 0.0 0.00 0.00 0.00 99 1006.7
20260505213450 25 230 0.0 0.0 0.00 0.00 0.00 99 1006.6
20260505213350 25 230 0.0 0.0 0.00 0.00 0.00 99 1006.6
20260505213250 25 230 0.0 0.0 0.00 0.00 0.00 99 1006.6
20260505213150 25 230 0.0 0.0 0.00 0.00 0.00 99 1006.6
20260505213056 25 230 0.0 0.0 0.00 0.00 0.00 99 1006.6
20260505212950 25 230 0.0 0.0 0.00 0.00 0.00 99 1006.6
20260505212850 25 230 0.0 0.0 0.00 0.00 0.00 99 1006.6
20260505212750 25 230 0.0 0.0 0.00 0.00 0.00 99 1006.6
20260505212650 25 230 0.0 0.0 0.00 0.00 0.00 99 1006.6
20260505212550 25 230 0.0 0.0 0.00 0.00 0.00 99 1006.6
20260505212450 25 230 0.0 0.0 0.00 0.00 0.00 99 1006.6
20260505212350 25 230 0.0 0.0 0.00 0.00 0.00 99 1006.6
20260505212250 25 230 0.0 0.0 0.00 0.00 0.00 99 1006.6
20260505212150 25 230 0.0 0.0 0.00 0.00 0.00 99 1006.6
20260505212050 25 230 0.0 0.0 0.00 0.00 0.00 99 1006.6
20260505211950 25 230 0.0 0.0 0.00 0.00 0.00 99 1006.6
20260505211850 25 240 0.0 0.0 0.00 0.00 0.00 99 1006.6
20260505211750 25 240 0.0 0.0 0.00 0.00 0.00 99 1006.6
20260505211650 25 240 0.0 0.0 0.00 0.00 0.00 99 1006.6
20260505211555 25 240 0.0 0.0 0.00 0.00 0.00 99 1006.6
20260505211450 25 240 0.0 0.0 0.00 0.00 0.00 99 1006.6
20260505211350 25 240 0.0 0.0 0.00 0.00 0.00 99 1006.6
20260505211250 25 240 0.0 0.0 0.00 0.00 0.00 99 1006.6
20260505211150 25 240 0.0 0.0 0.00 0.00 0.00 99 1006.6
20260505211050 25 240 0.0 0.0 0.00 0.00 0.00 99 1006.6
20260505210950 25 240 0.0 0.0 0.00 0.00 0.00 99 1006.6
20260505210850 25 240 0.0 0.0 0.00 0.00 0.00 99 1006.6
20260505210750 25 240 0.0 0.0 0.00 0.00 0.00 99 1006.6
20260505210650 25 240 0.0 0.0 0.00 0.00 0.00 99 1006.6
20260505210550 25 240 0.0 0.0 0.00 0.00 0.00 99 1006.6
20260505210450 25 240 0.0 0.0 0.00 0.00 0.00 99 1006.6
20260505210350 25 240 0.0 0.0 0.00 0.00 0.00 99 1006.6
20260505210250 25 240 0.0 0.0 0.00 0.00 0.00 99 1006.6
20260505210150 25 240 0.0 0.0 0.00 0.00 0.00 99 1006.6
20260505210053 25 240 0.0 0.0 0.00 0.00 0.00 99 1006.6
20260505205950 25 240 0.0 0.0 0.00 0.00 0.00 99 1006.6
20260505205850 25 240 0.0 0.0 0.00 0.00 0.00 99 1006.7
20260505205750 25 240 0.0 0.0 0.00 0.00 0.00 99 1006.7
20260505205649 25 240 0.0 0.0 0.00 0.00 0.00 99 1006.7
20260505205550 25 240 0.0 0.0 0.00 0.00 0.00 99 1006.7
20260505205450 25 240 0.0 0.0 0.00 0.00 0.00 99 1006.7
20260505205350 25 242 0.0 0.0 0.00 0.00 0.00 99 1006.7
20260505205250 25 242 0.0 0.0 0.00 0.00 0.00 99 1006.7
20260505205150 25 307 0.0 0.0 0.00 0.00 0.00 99 1006.7
20260505205050 25 307 0.0 0.0 0.00 0.00 0.00 99 1006.7
20260505204950 25 307 0.0 0.0 0.00 0.00 0.00 99 1006.8
20260505204849 25 307 0.0 0.0 0.00 0.00 0.00 99 1006.8
20260505204749 25 307 0.0 0.0 0.00 0.00 0.00 99 1006.8
20260505204650 25 307 0.0 0.0 0.00 0.00 0.00 99 1006.8
20260505204549 25 307 0.0 0.0 0.00 0.00 0.00 99 1006.8
20260505204450 25 307 0.0 0.0 0.00 0.00 0.00 99 1006.9
20260505204349 25 304 0.0 0.0 0.00 0.00 0.00 99 1006.9
20260505204250 25 303 0.0 0.0 0.00 0.00 0.00 99 1006.9
20260505204149 25 303 0.0 0.0 0.00 0.00 0.00 99 1006.9
20260505204049 25 303 0.0 0.0 0.00 0.00 0.00 99 1006.9
20260505203949 25 303 0.0 0.0 0.00 0.00 0.00 99 1006.9
20260505203849 25 303 0.0 0.0 0.00 0.00 0.00 99 1006.9
20260505203749 25 303 0.0 0.0 0.00 0.00 0.00 99 1006.9
20260505203649 25 303 0.0 0.0 0.00 0.00 0.00 99 1006.9
20260505203549 25 303 0.0 0.0 0.00 0.00 0.00 99 1006.9
20260505203449 25 303 0.0 0.0 0.00 0.00 0.00 99 1006.9
20260505203349 25 303 0.0 0.0 0.00 0.00 0.00 99 1006.9
20260505203249 25 303 0.0 0.0 0.00 0.00 0.00 99 1006.8
20260505203149 25 303 0.0 0.0 0.00 0.00 0.00 99 1006.8
20260505203049 25 307 0.0 0.0 0.00 0.00 0.00 99 1006.8
20260505202950 25 307 0.0 0.0 0.00 0.00 0.00 99 1006.8
20260505202849 25 307 0.0 0.0 0.00 0.00 0.00 99 1006.8
20260505202749 25 307 0.0 0.0 0.00 0.00 0.00 99 1006.7
20260505202649 25 307 0.0 0.0 0.00 0.00 0.00 99 1006.7
20260505202549 25 307 0.0 0.0 0.00 0.00 0.00 99 1006.7
20260505202449 25 307 0.0 0.0 0.00 0.00 0.00 99 1006.7
20260505202349 25 306 0.0 0.0 0.00 0.00 0.00 99 1006.7
20260505202249 25 306 0.0 0.0 0.00 0.00 0.00 99 1006.7
20260505202149 25 306 0.0 0.0 0.00 0.00 0.00 99 1006.7
20260505202049 25 306 0.0 0.0 0.00 0.00 0.00 99 1006.7
20260505201949 25 306 0.0 0.0 0.00 0.00 0.00 99 1006.7
20260505201849 25 306 0.0 0.0 0.00 0.00 0.00 99 1006.7
20260505201749 25 306 0.0 0.0 0.00 0.00 0.00 99 1006.7
20260505201649 25 306 0.0 0.0 0.00 0.00 0.00 99 1006.7
20260505201603 25 306 0.0 0.0 0.00 0.00 0.00 99 1006.7
20260505201449 25 306 0.0 0.0 0.00 0.00 0.00 99 1006.7
20260505201349 25 306 0.0 0.0 0.00 0.00 0.00 99 1006.8
20260505201249 25 306 0.0 0.0 0.00 0.00 0.00 99 1006.8
20260505201149 25 306 0.0 0.0 0.00 0.00 0.00 99 1006.8
20260505201049 25 306 0.0 0.0 0.00 0.00 0.00 99 1006.8
20260505200949 26 306 0.0 0.0 0.00 0.00 0.00 99 1006.8
20260505200849 26 306 0.0 0.0 0.00 0.00 0.00 99 1006.8
20260505200749 26 306 0.0 0.0 0.00 0.00 0.00 99 1006.8
20260505200649 26 306 0.0 0.0 0.00 0.00 0.00 99 1006.8
20260505200549 26 306 0.0 0.0 0.00 0.00 0.00 99 1006.8
20260505200449 26 306 0.0 0.0 0.00 0.00 0.00 99 1006.8
20260505200349 26 306 0.0 0.0 0.00 0.00 0.00 99 1006.8